Time,TemperatureF,DewpointF,PressureIn,WindDirection,WindDirectionDegrees,WindSpeedMPH,WindSpeedGustMPH,Humidity,HourlyPrecipIn,Conditions,Clouds,dailyrainin,SoftwareType,DateUTC
2013-02-23 00:00:00,44.8,43.5,29.98,West,268,1.0,1.0,95,0.00,,,0.22,Wunderground v.1.15,2013-02-23 05:00:00,
2013-02-23 00:01:00,44.8,43.5,29.98,West,267,1.0,1.0,95,0.00,,,0.22,Wunderground v.1.15,2013-02-23 05:01:00,
2013-02-23 00:02:00,44.7,43.4,29.98,West,268,0.0,1.0,95,0.00,,,0.22,Wunderground v.1.15,2013-02-23 05:02:00,
2013-02-23 00:07:00,44.7,43.4,29.98,West,267,0.0,1.0,95,0.00,,,0.00,Wunderground v.1.15,2013-02-23 05:07:00,
2013-02-23 00:08:00,44.7,43.4,29.98,West,267,0.0,1.0,95,0.00,,,0.00,Wunderground v.1.15,2013-02-23 05:08:00,
2013-02-23 00:09:00,44.7,43.4,29.97,West,268,1.0,1.0,95,0.00,,,0.00,Wunderground v.1.15,2013-02-23 05:09:00,
2013-02-23 00:11:00,44.7,43.4,29.97,West,267,1.0,1.0,95,0.00,,,0.00,Wunderground v.1.15,2013-02-23 05:11:00,
2013-02-23 00:15:00,44.7,43.4,29.96,West,267,1.0,1.0,95,0.00,,,0.00,Wunderground v.1.15,2013-02-23 05:15:00,
2013-02-23 00:18:00,44.6,43.3,29.97,West,268,0.0,1.0,95,0.00,,,0.00,Wunderground v.1.15,2013-02-23 05:18:00,
2013-02-23 00:19:00,44.7,43.4,29.98,West,267,3.0,3.0,95,0.00,,,0.00,Wunderground v.1.15,2013-02-23 05:19:00,
2013-02-23 00:21:00,44.6,43.3,29.98,West,267,3.0,3.0,95,0.00,,,0.00,Wunderground v.1.15,2013-02-23 05:21:00,
2013-02-23 00:25:00,44.7,43.4,29.99,West,267,3.0,3.0,95,0.00,,,0.00,Wunderground v.1.15,2013-02-23 05:25:00,
2013-02-23 00:28:00,44.7,43.4,29.99,West,267,1.0,3.0,95,0.00,,,0.00,Wunderground v.1.15,2013-02-23 05:28:00,
2013-02-23 00:32:00,44.7,43.4,29.99,West,267,2.0,3.0,95,0.00,,,0.00,Wunderground v.1.15,2013-02-23 05:32:00,
2013-02-23 00:34:00,44.6,43.3,29.99,West,267,0.0,3.0,95,0.00,,,0.00,Wunderground v.1.15,2013-02-23 05:34:00,
2013-02-23 00:35:00,44.6,43.3,29.99,West,268,1.0,3.0,95,0.00,,,0.00,Wunderground v.1.15,2013-02-23 05:35:00,
2013-02-23 00:40:00,44.6,43.3,29.99,West,267,1.0,2.0,95,0.00,,,0.00,Wunderground v.1.15,2013-02-23 05:40:00,
2013-02-23 00:41:00,44.6,43.3,29.99,West,267,2.0,2.0,95,0.00,,,0.00,Wunderground v.1.15,2013-02-23 05:41:00,
2013-02-23 00:42:00,44.6,43.3,29.99,West,268,2.0,2.0,95,0.00,,,0.00,Wunderground v.1.15,2013-02-23 05:42:00,
2013-02-23 00:45:00,44.6,43.3,29.99,West,267,3.0,3.0,95,0.00,,,0.00,Wunderground v.1.15,2013-02-23 05:45:00,
2013-02-23 00:47:00,44.6,43.3,29.99,West,267,1.0,3.0,95,0.00,,,0.00,Wunderground v.1.15,2013-02-23 05:47:00,
2013-02-23 00:51:00,44.7,43.4,29.99,West,268,3.0,3.0,95,0.00,,,0.00,Wunderground v.1.15,2013-02-23 05:51:00,
2013-02-23 00:53:00,44.6,43.3,29.99,West,268,3.0,3.0,95,0.00,,,0.00,Wunderground v.1.15,2013-02-23 05:53:00,
2013-02-23 00:56:00,44.6,43.3,29.99,West,267,2.0,3.0,95,0.00,,,0.01,Wunderground v.1.15,2013-02-23 05:56:00,
2013-02-23 00:57:00,44.6,43.3,29.99,West,267,1.0,3.0,95,0.00,,,0.01,Wunderground v.1.15,2013-02-23 05:57:00,
2013-02-23 01:01:00,44.6,43.3,29.99,West,267,2.0,2.0,95,0.00,,,0.01,Wunderground v.1.15,2013-02-23 06:01:00,
2013-02-23 01:02:00,44.6,43.3,29.99,West,267,3.0,3.0,95,0.00,,,0.01,Wunderground v.1.15,2013-02-23 06:02:00,
2013-02-23 01:05:00,44.6,43.5,29.98,West,267,2.0,3.0,96,0.05,,,0.01,Wunderground v.1.15,2013-02-23 06:05:00,
2013-02-23 01:07:00,44.6,43.5,29.98,West,267,2.0,3.0,96,0.05,,,0.02,Wunderground v.1.15,2013-02-23 06:07:00,
2013-02-23 01:09:00,44.5,43.4,29.98,West,267,3.0,3.0,96,0.05,,,0.02,Wunderground v.1.15,2013-02-23 06:09:00,
2013-02-23 01:14:00,44.5,43.4,29.98,West,267,0.0,3.0,96,0.05,,,0.02,Wunderground v.1.15,2013-02-23 06:14:00,
2013-02-23 01:15:00,44.5,43.4,29.98,West,268,0.0,3.0,96,0.05,,,0.02,Wunderground v.1.15,2013-02-23 06:15:00,
2013-02-23 01:16:00,44.5,43.4,29.98,West,267,0.0,3.0,96,0.05,,,0.02,Wunderground v.1.15,2013-02-23 06:16:00,
2013-02-23 01:20:00,44.5,43.4,29.98,West,267,0.0,1.0,96,0.04,,,0.02,Wunderground v.1.15,2013-02-23 06:20:00,
2013-02-23 01:22:00,44.5,43.4,29.98,West,267,2.0,2.0,96,0.04,,,0.02,Wunderground v.1.15,2013-02-23 06:22:00,
2013-02-23 01:23:00,44.5,43.4,29.98,West,268,2.0,2.0,96,0.00,,,0.02,Wunderground v.1.15,2013-02-23 06:23:00,
2013-02-23 01:26:00,44.5,43.4,29.98,West,267,0.0,2.0,96,0.00,,,0.03,Wunderground v.1.15,2013-02-23 06:26:00,
2013-02-23 01:30:00,44.5,43.4,29.97,West,268,0.0,1.0,96,0.00,,,0.03,Wunderground v.1.15,2013-02-23 06:30:00,
2013-02-23 01:33:00,44.5,43.4,29.98,West,268,0.0,1.0,96,0.07,,,0.04,Wunderground v.1.15,2013-02-23 06:33:00,
2013-02-23 01:35:00,44.5,43.4,29.98,West,267,1.0,1.0,96,0.07,,,0.04,Wunderground v.1.15,2013-02-23 06:35:00,
2013-02-23 01:38:00,44.5,43.4,29.98,West,267,0.0,1.0,96,0.07,,,0.04,Wunderground v.1.15,2013-02-23 06:38:00,
2013-02-23 01:39:00,44.5,43.4,29.98,West,267,0.0,1.0,96,0.07,,,0.04,Wunderground v.1.15,2013-02-23 06:39:00,
2013-02-23 01:40:00,44.6,43.5,29.98,West,268,0.0,0.0,96,0.07,,,0.04,Wunderground v.1.15,2013-02-23 06:40:00,
2013-02-23 01:44:00,44.5,43.4,29.97,West,267,0.0,0.0,96,0.05,,,0.04,Wunderground v.1.15,2013-02-23 06:44:00,
2013-02-23 01:45:00,44.5,43.4,29.97,West,267,0.0,0.0,96,0.05,,,0.04,Wunderground v.1.15,2013-02-23 06:45:00,
2013-02-23 01:51:00,44.5,43.4,29.97,West,267,0.0,0.0,96,0.04,,,0.05,Wunderground v.1.15,2013-02-23 06:51:00,
2013-02-23 01:52:00,44.5,43.4,29.97,West,268,3.0,3.0,96,0.04,,,0.05,Wunderground v.1.15,2013-02-23 06:52:00,
2013-02-23 01:53:00,44.5,43.4,29.98,West,267,3.0,3.0,96,0.04,,,0.05,Wunderground v.1.15,2013-02-23 06:53:00,
2013-02-23 01:58:00,44.5,43.4,29.97,West,267,0.0,3.0,96,0.04,,,0.05,Wunderground v.1.15,2013-02-23 06:58:00,
2013-02-23 01:59:00,44.5,43.4,29.97,West,267,0.0,3.0,96,0.04,,,0.05,Wunderground v.1.15,2013-02-23 06:59:00,
2013-02-23 02:00:00,44.5,43.4,29.97,West,268,0.0,2.0,96,0.04,,,0.05,Wunderground v.1.15,2013-02-23 07:00:00,
2013-02-23 02:02:00,44.5,43.4,29.97,West,268,0.0,2.0,96,0.04,,,0.06,Wunderground v.1.15,2013-02-23 07:02:00,
2013-02-23 02:03:00,44.5,43.4,29.97,West,267,0.0,2.0,96,0.04,,,0.06,Wunderground v.1.15,2013-02-23 07:03:00,
2013-02-23 02:04:00,44.5,43.4,29.97,West,267,1.0,2.0,96,0.04,,,0.06,Wunderground v.1.15,2013-02-23 07:04:00,
2013-02-23 02:05:00,44.5,43.4,29.97,West,267,0.0,2.0,96,0.04,,,0.06,Wunderground v.1.15,2013-02-23 07:05:00,
2013-02-23 02:07:00,44.5,43.4,29.98,West,267,2.0,2.0,96,0.04,,,0.06,Wunderground v.1.15,2013-02-23 07:07:00,
2013-02-23 02:08:00,44.5,43.4,29.98,West,267,3.0,3.0,96,0.04,,,0.06,Wunderground v.1.15,2013-02-23 07:08:00,
2013-02-23 02:09:00,44.5,43.4,29.98,West,267,0.0,3.0,96,0.04,,,0.06,Wunderground v.1.15,2013-02-23 07:09:00,
2013-02-23 02:10:00,44.5,43.4,29.98,West,267,1.0,2.0,96,0.04,,,0.06,Wunderground v.1.15,2013-02-23 07:10:00,
2013-02-23 02:12:00,44.5,43.4,29.98,West,267,1.0,3.0,96,0.04,,,0.06,Wunderground v.1.15,2013-02-23 07:12:00,
2013-02-23 02:13:00,44.5,43.4,29.98,West,267,2.0,3.0,96,0.05,,,0.07,Wunderground v.1.15,2013-02-23 07:13:00,
2013-02-23 02:14:00,44.5,43.4,29.98,West,267,0.0,3.0,96,0.05,,,0.07,Wunderground v.1.15,2013-02-23 07:14:00,
2013-02-23 02:15:00,44.5,43.4,29.98,West,267,0.0,3.0,96,0.05,,,0.07,Wunderground v.1.15,2013-02-23 07:15:00,
2013-02-23 02:17:00,44.5,43.4,29.98,West,268,1.0,3.0,96,0.05,,,0.07,Wunderground v.1.15,2013-02-23 07:17:00,
2013-02-23 02:18:00,44.5,43.4,29.98,West,268,0.0,3.0,96,0.05,,,0.07,Wunderground v.1.15,2013-02-23 07:18:00,
2013-02-23 02:20:00,44.5,43.4,29.98,West,268,0.0,1.0,96,0.07,,,0.08,Wunderground v.1.15,2013-02-23 07:20:00,
2013-02-23 02:23:00,44.5,43.4,29.98,West,267,0.0,1.0,96,0.07,,,0.08,Wunderground v.1.15,2013-02-23 07:23:00,
2013-02-23 02:25:00,44.5,43.4,29.98,West,268,0.0,1.0,96,0.07,,,0.08,Wunderground v.1.15,2013-02-23 07:25:00,
2013-02-23 02:26:00,44.5,43.4,29.98,West,267,0.0,1.0,96,0.07,,,0.08,Wunderground v.1.15,2013-02-23 07:26:00,
2013-02-23 02:28:00,44.5,43.4,29.97,West,267,0.0,1.0,96,0.09,,,0.09,Wunderground v.1.15,2013-02-23 07:28:00,
2013-02-23 02:30:00,44.5,43.4,29.97,West,267,0.0,0.0,96,0.09,,,0.09,Wunderground v.1.15,2013-02-23 07:30:00,
2013-02-23 02:31:00,44.5,43.4,29.97,West,267,0.0,0.0,96,0.09,,,0.09,Wunderground v.1.15,2013-02-23 07:31:00,
2013-02-23 02:33:00,44.5,43.4,29.97,West,267,0.0,0.0,96,0.09,,,0.09,Wunderground v.1.15,2013-02-23 07:33:00,
2013-02-23 02:35:00,44.5,43.4,29.98,West,267,0.0,0.0,96,0.07,,,0.09,Wunderground v.1.15,2013-02-23 07:35:00,
2013-02-23 02:36:00,44.5,43.4,29.98,West,267,0.0,0.0,96,0.06,,,0.09,Wunderground v.1.15,2013-02-23 07:36:00,
2013-02-23 02:38:00,44.5,43.4,29.99,West,267,0.0,0.0,96,0.05,,,0.09,Wunderground v.1.15,2013-02-23 07:38:00,
2013-02-23 02:39:00,44.5,43.4,29.99,West,267,2.0,2.0,96,0.05,,,0.10,Wunderground v.1.15,2013-02-23 07:39:00,
2013-02-23 02:40:00,44.5,43.4,30.00,West,267,2.0,2.0,96,0.05,,,0.10,Wunderground v.1.15,2013-02-23 07:40:00,
2013-02-23 02:41:00,44.5,43.4,30.00,West,267,0.0,3.0,96,0.05,,,0.10,Wunderground v.1.15,2013-02-23 07:41:00,
2013-02-23 02:43:00,44.5,43.4,29.99,West,267,0.0,3.0,96,0.05,,,0.10,Wunderground v.1.15,2013-02-23 07:43:00,
2013-02-23 02:44:00,44.5,43.4,29.99,West,267,0.0,3.0,96,0.05,,,0.10,Wunderground v.1.15,2013-02-23 07:44:00,
2013-02-23 02:46:00,44.5,43.4,29.99,West,267,1.0,3.0,96,0.05,,,0.10,Wunderground v.1.15,2013-02-23 07:46:00,
2013-02-23 02:47:00,44.5,43.4,29.99,West,268,1.0,3.0,96,0.07,,,0.11,Wunderground v.1.15,2013-02-23 07:47:00,
2013-02-23 02:48:00,44.5,43.4,29.99,West,268,1.0,3.0,96,0.24,,,0.11,Wunderground v.1.15,2013-02-23 07:48:00,
2013-02-23 02:49:00,44.5,43.4,29.99,West,268,1.0,3.0,96,0.24,,,0.12,Wunderground v.1.15,2013-02-23 07:49:00,
2013-02-23 02:51:00,44.5,43.4,29.97,West,267,0.0,2.0,96,0.24,,,0.12,Wunderground v.1.15,2013-02-23 07:51:00,
2013-02-23 02:52:00,44.5,43.4,29.97,West,268,0.0,2.0,96,0.23,,,0.13,Wunderground v.1.15,2013-02-23 07:52:00,
2013-02-23 02:54:00,44.5,43.4,29.97,West,268,0.0,2.0,96,0.27,,,0.14,Wunderground v.1.15,2013-02-23 07:54:00,
2013-02-23 02:55:00,44.5,43.4,29.96,West,267,0.0,2.0,96,0.27,,,0.14,Wunderground v.1.15,2013-02-23 07:55:00,
2013-02-23 02:56:00,44.5,43.4,29.96,West,268,0.0,2.0,96,0.21,,,0.14,Wunderground v.1.15,2013-02-23 07:56:00,
2013-02-23 02:57:00,44.5,43.4,29.95,West,267,0.0,2.0,96,0.18,,,0.15,Wunderground v.1.15,2013-02-23 07:57:00,
2013-02-23 02:59:00,44.5,43.4,29.95,West,268,0.0,2.0,96,0.18,,,0.15,Wunderground v.1.15,2013-02-23 07:59:00,
2013-02-23 03:00:00,44.5,43.4,29.95,West,268,0.0,0.0,96,0.26,,,0.16,Wunderground v.1.15,2013-02-23 08:00:00,
2013-02-23 03:02:00,44.5,43.4,29.95,West,267,0.0,0.0,96,0.20,,,0.16,Wunderground v.1.15,2013-02-23 08:02:00,
2013-02-23 03:03:00,44.4,43.3,29.95,West,267,0.0,0.0,96,0.16,,,0.16,Wunderground v.1.15,2013-02-23 08:03:00,
2013-02-23 03:04:00,44.4,43.3,29.95,West,267,0.0,0.0,96,0.13,,,0.16,Wunderground v.1.15,2013-02-23 08:04:00,
2013-02-23 03:05:00,44.4,43.3,29.95,West,267,0.0,0.0,96,0.11,,,0.17,Wunderground v.1.15,2013-02-23 08:05:00,
2013-02-23 03:07:00,44.4,43.3,29.95,West,268,0.0,0.0,96,0.11,,,0.17,Wunderground v.1.15,2013-02-23 08:07:00,
2013-02-23 03:08:00,44.4,43.3,29.94,West,267,0.0,0.0,96,0.11,,,0.17,Wunderground v.1.15,2013-02-23 08:08:00,
2013-02-23 03:09:00,44.4,43.3,29.94,West,267,0.0,0.0,96,0.11,,,0.17,Wunderground v.1.15,2013-02-23 08:09:00,
2013-02-23 03:10:00,44.3,43.2,29.95,West,267,0.0,0.0,96,0.10,,,0.17,Wunderground v.1.15,2013-02-23 08:10:00,
2013-02-23 03:12:00,44.3,43.2,29.95,West,267,0.0,1.0,96,0.07,,,0.17,Wunderground v.1.15,2013-02-23 08:12:00,
2013-02-23 03:14:00,44.3,43.2,29.95,West,268,0.0,1.0,96,0.06,,,0.17,Wunderground v.1.15,2013-02-23 08:14:00,
2013-02-23 03:16:00,44.3,43.2,29.96,West,267,0.0,1.0,96,0.05,,,0.17,Wunderground v.1.15,2013-02-23 08:16:00,
2013-02-23 03:17:00,44.3,43.2,29.94,West,268,0.0,1.0,96,0.05,,,0.17,Wunderground v.1.15,2013-02-23 08:17:00,
2013-02-23 03:19:00,44.3,43.2,29.94,West,267,0.0,1.0,96,0.04,,,0.17,Wunderground v.1.15,2013-02-23 08:19:00,
2013-02-23 03:20:00,44.3,43.2,29.94,West,267,0.0,0.0,96,0.04,,,0.17,Wunderground v.1.15,2013-02-23 08:20:00,
2013-02-23 03:21:00,44.3,43.2,29.94,West,267,0.0,0.0,96,0.04,,,0.17,Wunderground v.1.15,2013-02-23 08:21:00,
2013-02-23 03:23:00,44.3,43.2,29.93,West,267,0.0,1.0,96,0.04,,,0.18,Wunderground v.1.15,2013-02-23 08:23:00,
2013-02-23 03:25:00,44.3,43.2,29.93,West,267,0.0,1.0,96,0.04,,,0.18,Wunderground v.1.15,2013-02-23 08:25:00,
2013-02-23 03:26:00,44.3,43.2,29.93,West,267,0.0,1.0,96,0.04,,,0.18,Wunderground v.1.15,2013-02-23 08:26:00,
2013-02-23 03:28:00,44.3,43.2,29.93,West,267,0.0,1.0,96,0.04,,,0.18,Wunderground v.1.15,2013-02-23 08:28:00,
2013-02-23 03:30:00,44.3,43.2,29.94,West,267,0.0,0.0,96,0.04,,,0.18,Wunderground v.1.15,2013-02-23 08:30:00,
2013-02-23 03:31:00,44.3,43.2,29.94,West,267,0.0,0.0,96,0.04,,,0.18,Wunderground v.1.15,2013-02-23 08:31:00,
2013-02-23 03:33:00,44.3,43.2,29.93,West,267,0.0,0.0,96,0.04,,,0.18,Wunderground v.1.15,2013-02-23 08:33:00,
2013-02-23 03:35:00,44.3,43.2,29.92,West,267,0.0,1.0,96,0.05,,,0.19,Wunderground v.1.15,2013-02-23 08:35:00,
2013-02-23 03:36:00,44.3,43.2,29.92,West,268,0.0,1.0,96,0.05,,,0.19,Wunderground v.1.15,2013-02-23 08:36:00,
2013-02-23 03:38:00,44.3,43.2,29.91,West,268,1.0,2.0,96,0.05,,,0.19,Wunderground v.1.15,2013-02-23 08:38:00,
2013-02-23 03:40:00,44.3,43.2,29.91,West,267,0.0,1.0,96,0.05,,,0.19,Wunderground v.1.15,2013-02-23 08:40:00,
2013-02-23 03:42:00,44.3,43.2,29.91,West,267,0.0,1.0,96,0.05,,,0.19,Wunderground v.1.15,2013-02-23 08:42:00,
2013-02-23 03:43:00,44.3,43.2,29.91,West,268,0.0,1.0,96,0.05,,,0.19,Wunderground v.1.15,2013-02-23 08:43:00,
2013-02-23 03:45:00,44.3,43.2,29.92,West,267,3.0,3.0,96,0.05,,,0.19,Wunderground v.1.15,2013-02-23 08:45:00,
2013-02-23 03:46:00,44.3,43.2,29.92,West,268,1.0,3.0,96,0.05,,,0.19,Wunderground v.1.15,2013-02-23 08:46:00,
2013-02-23 03:47:00,44.3,43.2,29.92,West,268,0.0,3.0,96,0.05,,,0.19,Wunderground v.1.15,2013-02-23 08:47:00,
2013-02-23 03:48:00,44.2,43.1,29.92,West,267,0.0,3.0,96,0.04,,,0.19,Wunderground v.1.15,2013-02-23 08:48:00,
2013-02-23 03:51:00,44.2,43.1,29.93,West,267,0.0,0.0,96,0.04,,,0.19,Wunderground v.1.15,2013-02-23 08:51:00,
2013-02-23 03:52:00,44.2,43.1,29.93,West,267,0.0,1.0,96,0.00,,,0.19,Wunderground v.1.15,2013-02-23 08:52:00,
2013-02-23 03:53:00,44.3,43.2,29.93,West,267,0.0,1.0,96,0.00,,,0.19,Wunderground v.1.15,2013-02-23 08:53:00,
2013-02-23 03:56:00,44.2,43.1,29.93,West,268,0.0,1.0,96,0.00,,,0.19,Wunderground v.1.15,2013-02-23 08:56:00,
2013-02-23 03:57:00,44.2,43.1,29.94,West,267,0.0,1.0,96,0.00,,,0.19,Wunderground v.1.15,2013-02-23 08:57:00,
2013-02-23 03:58:00,44.2,43.1,29.93,West,267,0.0,1.0,96,0.00,,,0.19,Wunderground v.1.15,2013-02-23 08:58:00,
2013-02-23 04:01:00,44.2,43.1,29.93,West,267,0.0,1.0,96,0.00,,,0.19,Wunderground v.1.15,2013-02-23 09:01:00,
2013-02-23 04:03:00,44.2,43.1,29.93,West,267,0.0,1.0,96,0.00,,,0.19,Wunderground v.1.15,2013-02-23 09:03:00,
2013-02-23 04:06:00,44.2,43.1,29.93,West,267,0.0,1.0,96,0.00,,,0.20,Wunderground v.1.15,2013-02-23 09:06:00,
2013-02-23 04:08:00,44.2,43.1,29.92,West,267,0.0,1.0,96,0.00,,,0.20,Wunderground v.1.15,2013-02-23 09:08:00,
2013-02-23 04:09:00,44.2,43.1,29.92,West,267,0.0,1.0,96,0.00,,,0.20,Wunderground v.1.15,2013-02-23 09:09:00,
2013-02-23 04:11:00,44.1,43.0,29.92,West,268,0.0,0.0,96,0.00,,,0.20,Wunderground v.1.15,2013-02-23 09:11:00,
2013-02-23 04:13:00,44.2,43.1,29.92,West,267,0.0,0.0,96,0.00,,,0.20,Wunderground v.1.15,2013-02-23 09:13:00,
2013-02-23 04:14:00,44.2,43.1,29.92,West,267,0.0,0.0,96,0.00,,,0.20,Wunderground v.1.15,2013-02-23 09:14:00,
2013-02-23 04:16:00,44.2,43.1,29.93,West,267,0.0,0.0,96,0.00,,,0.20,Wunderground v.1.15,2013-02-23 09:16:00,
2013-02-23 04:17:00,44.1,43.0,29.93,West,268,0.0,0.0,96,0.00,,,0.20,Wunderground v.1.15,2013-02-23 09:17:00,
2013-02-23 04:19:00,44.2,43.1,29.93,West,267,0.0,0.0,96,0.05,,,0.21,Wunderground v.1.15,2013-02-23 09:19:00,
2013-02-23 04:21:00,44.2,43.1,29.92,West,267,0.0,0.0,96,0.05,,,0.21,Wunderground v.1.15,2013-02-23 09:21:00,
2013-02-23 04:22:00,44.2,43.1,29.92,West,267,0.0,0.0,96,0.05,,,0.21,Wunderground v.1.15,2013-02-23 09:22:00,
2013-02-23 04:24:00,44.2,43.1,29.92,West,267,0.0,0.0,96,0.05,,,0.21,Wunderground v.1.15,2013-02-23 09:24:00,
2013-02-23 04:26:00,44.2,43.1,29.92,West,267,0.0,1.0,96,0.05,,,0.21,Wunderground v.1.15,2013-02-23 09:26:00,
2013-02-23 04:27:00,44.2,43.1,29.92,West,267,0.0,1.0,96,0.05,,,0.21,Wunderground v.1.15,2013-02-23 09:27:00,
2013-02-23 04:29:00,44.2,43.1,29.91,West,267,0.0,1.0,96,0.05,,,0.21,Wunderground v.1.15,2013-02-23 09:29:00,
2013-02-23 04:32:00,44.2,43.1,29.91,West,267,0.0,1.0,96,0.05,,,0.21,Wunderground v.1.15,2013-02-23 09:32:00,
2013-02-23 04:34:00,44.2,43.1,29.91,West,267,0.0,1.0,96,0.04,,,0.21,Wunderground v.1.15,2013-02-23 09:34:00,
2013-02-23 04:37:00,44.2,43.1,29.92,West,267,0.0,1.0,96,0.00,,,0.21,Wunderground v.1.15,2013-02-23 09:37:00,
2013-02-23 04:39:00,44.2,43.1,29.92,West,267,0.0,1.0,96,0.00,,,0.21,Wunderground v.1.15,2013-02-23 09:39:00,
2013-02-23 04:42:00,44.2,43.1,29.92,West,267,0.0,0.0,96,0.00,,,0.21,Wunderground v.1.15,2013-02-23 09:42:00,
2013-02-23 04:43:00,44.2,43.1,29.92,West,267,0.0,0.0,96,0.00,,,0.21,Wunderground v.1.15,2013-02-23 09:43:00,
2013-02-23 04:44:00,44.2,43.1,29.92,West,268,1.0,1.0,96,0.00,,,0.22,Wunderground v.1.15,2013-02-23 09:44:00,
2013-02-23 04:45:00,44.2,43.1,29.92,West,267,0.0,1.0,96,0.00,,,0.22,Wunderground v.1.15,2013-02-23 09:45:00,
2013-02-23 04:47:00,44.2,43.1,29.92,West,267,0.0,1.0,96,0.00,,,0.22,Wunderground v.1.15,2013-02-23 09:47:00,
2013-02-23 04:48:00,44.2,43.1,29.92,West,268,0.0,1.0,96,0.00,,,0.22,Wunderground v.1.15,2013-02-23 09:48:00,
2013-02-23 04:50:00,44.2,43.1,29.93,West,268,0.0,0.0,96,0.00,,,0.22,Wunderground v.1.15,2013-02-23 09:50:00,
2013-02-23 04:51:00,44.2,43.1,29.92,West,268,0.0,0.0,96,0.00,,,0.22,Wunderground v.1.15,2013-02-23 09:51:00,
2013-02-23 04:53:00,44.3,43.2,29.93,West,268,0.0,0.0,96,0.00,,,0.22,Wunderground v.1.15,2013-02-23 09:53:00,
2013-02-23 04:54:00,44.3,43.2,29.93,West,267,0.0,0.0,96,0.00,,,0.22,Wunderground v.1.15,2013-02-23 09:54:00,
2013-02-23 04:55:00,44.3,43.2,29.93,West,267,0.0,0.0,96,0.00,,,0.22,Wunderground v.1.15,2013-02-23 09:55:00,
2013-02-23 04:56:00,44.3,43.2,29.93,West,268,0.0,0.0,96,0.00,,,0.22,Wunderground v.1.15,2013-02-23 09:56:00,
2013-02-23 04:58:00,44.3,43.2,29.93,West,267,0.0,0.0,96,0.00,,,0.22,Wunderground v.1.15,2013-02-23 09:58:00,
2013-02-23 04:59:00,44.3,43.2,29.93,West,267,0.0,0.0,96,0.00,,,0.22,Wunderground v.1.15,2013-02-23 09:59:00,
2013-02-23 05:00:00,44.3,43.2,29.93,West,267,0.0,1.0,96,0.00,,,0.22,Wunderground v.1.15,2013-02-23 10:00:00,
2013-02-23 05:01:00,44.3,43.2,29.93,West,267,0.0,1.0,96,0.00,,,0.22,Wunderground v.1.15,2013-02-23 10:01:00,
2013-02-23 05:03:00,44.3,43.2,29.93,West,267,0.0,1.0,96,0.00,,,0.22,Wunderground v.1.15,2013-02-23 10:03:00,
2013-02-23 05:04:00,44.3,43.2,29.93,West,267,0.0,1.0,96,0.00,,,0.22,Wunderground v.1.15,2013-02-23 10:04:00,
2013-02-23 05:05:00,44.3,43.2,29.93,West,268,0.0,1.0,96,0.00,,,0.23,Wunderground v.1.15,2013-02-23 10:05:00,
2013-02-23 05:06:00,44.3,43.2,29.93,West,267,0.0,1.0,96,0.00,,,0.23,Wunderground v.1.15,2013-02-23 10:06:00,
2013-02-23 05:08:00,44.3,43.2,29.92,West,268,0.0,1.0,96,0.00,,,0.23,Wunderground v.1.15,2013-02-23 10:08:00,
2013-02-23 05:10:00,44.3,43.2,29.92,West,267,0.0,0.0,96,0.00,,,0.23,Wunderground v.1.15,2013-02-23 10:10:00,
2013-02-23 05:11:00,44.3,43.2,29.92,West,267,0.0,0.0,96,0.00,,,0.23,Wunderground v.1.15,2013-02-23 10:11:00,
2013-02-23 05:14:00,44.3,43.2,29.93,West,267,0.0,0.0,96,0.00,,,0.23,Wunderground v.1.15,2013-02-23 10:14:00,
2013-02-23 05:15:00,44.3,43.2,29.93,West,267,0.0,0.0,96,0.00,,,0.23,Wunderground v.1.15,2013-02-23 10:15:00,
2013-02-23 05:16:00,44.4,43.3,29.92,West,267,0.0,0.0,96,0.00,,,0.23,Wunderground v.1.15,2013-02-23 10:16:00,
2013-02-23 05:17:00,44.4,43.3,29.92,West,267,0.0,0.0,96,0.00,,,0.23,Wunderground v.1.15,2013-02-23 10:17:00,
2013-02-23 05:19:00,44.4,43.3,29.92,West,267,0.0,0.0,96,0.04,,,0.23,Wunderground v.1.15,2013-02-23 10:19:00,
2013-02-23 05:20:00,44.4,43.3,29.92,West,268,0.0,0.0,96,0.04,,,0.24,Wunderground v.1.15,2013-02-23 10:20:00,
2013-02-23 05:21:00,44.4,43.3,29.92,West,268,0.0,0.0,96,0.04,,,0.24,Wunderground v.1.15,2013-02-23 10:21:00,
2013-02-23 05:22:00,44.4,43.3,29.92,West,268,0.0,0.0,96,0.04,,,0.24,Wunderground v.1.15,2013-02-23 10:22:00,
2013-02-23 05:24:00,44.4,43.3,29.93,West,267,0.0,0.0,96,0.04,,,0.24,Wunderground v.1.15,2013-02-23 10:24:00,
2013-02-23 05:25:00,44.4,43.3,29.93,West,268,0.0,0.0,96,0.04,,,0.24,Wunderground v.1.15,2013-02-23 10:25:00,
2013-02-23 05:26:00,44.4,43.3,29.92,West,267,0.0,0.0,96,0.04,,,0.24,Wunderground v.1.15,2013-02-23 10:26:00,
2013-02-23 05:27:00,44.4,43.3,29.92,West,268,0.0,0.0,96,0.04,,,0.24,Wunderground v.1.15,2013-02-23 10:27:00,
2013-02-23 05:29:00,44.4,43.3,29.92,West,268,0.0,1.0,96,0.04,,,0.24,Wunderground v.1.15,2013-02-23 10:29:00,
2013-02-23 05:30:00,44.4,43.3,29.92,West,267,0.0,0.0,96,0.04,,,0.24,Wunderground v.1.15,2013-02-23 10:30:00,
2013-02-23 05:32:00,44.4,43.3,29.92,West,267,0.0,0.0,96,0.04,,,0.24,Wunderground v.1.15,2013-02-23 10:32:00,
2013-02-23 05:34:00,44.4,43.3,29.92,West,267,0.0,1.0,96,0.04,,,0.24,Wunderground v.1.15,2013-02-23 10:34:00,
2013-02-23 05:35:00,44.4,43.3,29.92,West,267,0.0,1.0,96,0.04,,,0.24,Wunderground v.1.15,2013-02-23 10:35:00,
2013-02-23 05:37:00,44.5,43.4,29.92,West,267,2.0,2.0,96,0.00,,,0.24,Wunderground v.1.15,2013-02-23 10:37:00,
2013-02-23 05:38:00,44.5,43.4,29.92,West,267,0.0,2.0,96,0.00,,,0.24,Wunderground v.1.15,2013-02-23 10:38:00,
2013-02-23 05:39:00,44.5,43.4,29.92,West,267,0.0,2.0,96,0.00,,,0.24,Wunderground v.1.15,2013-02-23 10:39:00,
2013-02-23 05:40:00,44.5,43.4,29.92,West,267,0.0,0.0,96,0.00,,,0.24,Wunderground v.1.15,2013-02-23 10:40:00,
2013-02-23 05:42:00,44.5,43.4,29.92,West,268,0.0,0.0,96,0.00,,,0.24,Wunderground v.1.15,2013-02-23 10:42:00,
2013-02-23 05:44:00,44.5,43.4,29.92,West,267,0.0,0.0,96,0.00,,,0.24,Wunderground v.1.15,2013-02-23 10:44:00,
2013-02-23 05:46:00,44.5,43.4,29.93,West,267,0.0,0.0,96,0.00,,,0.24,Wunderground v.1.15,2013-02-23 10:46:00,
2013-02-23 05:48:00,44.5,43.4,29.92,West,268,0.0,1.0,96,0.00,,,0.24,Wunderground v.1.15,2013-02-23 10:48:00,
2013-02-23 05:49:00,44.5,43.4,29.92,West,267,0.0,1.0,96,0.00,,,0.24,Wunderground v.1.15,2013-02-23 10:49:00,
2013-02-23 05:50:00,44.5,43.7,29.92,West,267,2.0,2.0,97,0.00,,,0.24,Wunderground v.1.15,2013-02-23 10:50:00,
2013-02-23 05:51:00,44.5,43.4,29.92,West,267,1.0,3.0,96,0.00,,,0.24,Wunderground v.1.15,2013-02-23 10:51:00,
2013-02-23 05:53:00,44.5,43.7,29.92,West,267,0.0,3.0,97,0.00,,,0.24,Wunderground v.1.15,2013-02-23 10:53:00,
2013-02-23 05:54:00,44.5,43.7,29.92,West,268,0.0,3.0,97,0.00,,,0.24,Wunderground v.1.15,2013-02-23 10:54:00,
2013-02-23 05:55:00,44.5,43.7,29.92,West,268,0.0,3.0,97,0.00,,,0.24,Wunderground v.1.15,2013-02-23 10:55:00,
2013-02-23 05:56:00,44.5,43.7,29.91,West,267,1.0,3.0,97,0.00,,,0.24,Wunderground v.1.15,2013-02-23 10:56:00,
2013-02-23 05:58:00,44.6,43.8,29.91,West,267,1.0,3.0,97,0.00,,,0.24,Wunderground v.1.15,2013-02-23 10:58:00,
2013-02-23 05:59:00,44.5,43.7,29.91,West,267,0.0,3.0,97,0.00,,,0.24,Wunderground v.1.15,2013-02-23 10:59:00,
2013-02-23 06:00:00,44.6,43.8,29.91,West,268,1.0,2.0,97,0.00,,,0.24,Wunderground v.1.15,2013-02-23 11:00:00,
2013-02-23 06:02:00,44.5,43.7,29.92,West,267,0.0,2.0,97,0.00,,,0.24,Wunderground v.1.15,2013-02-23 11:02:00,
2013-02-23 06:03:00,44.6,43.8,29.92,West,268,0.0,2.0,97,0.00,,,0.24,Wunderground v.1.15,2013-02-23 11:03:00,
2013-02-23 06:04:00,44.6,43.8,29.92,West,267,0.0,2.0,97,0.00,,,0.24,Wunderground v.1.15,2013-02-23 11:04:00,
2013-02-23 06:05:00,44.6,43.8,29.92,West,268,0.0,2.0,97,0.00,,,0.24,Wunderground v.1.15,2013-02-23 11:05:00,
2013-02-23 06:07:00,44.6,43.8,29.92,West,268,0.0,2.0,97,0.00,,,0.24,Wunderground v.1.15,2013-02-23 11:07:00,
2013-02-23 06:09:00,44.6,43.8,29.92,West,267,1.0,2.0,97,0.00,,,0.25,Wunderground v.1.15,2013-02-23 11:09:00,
2013-02-23 06:10:00,44.6,43.8,29.92,West,267,1.0,2.0,97,0.00,,,0.25,Wunderground v.1.15,2013-02-23 11:10:00,
2013-02-23 06:12:00,44.6,43.8,29.91,West,267,0.0,2.0,97,0.00,,,0.25,Wunderground v.1.15,2013-02-23 11:12:00,
2013-02-23 06:14:00,44.7,43.9,29.92,West,267,1.0,2.0,97,0.00,,,0.25,Wunderground v.1.15,2013-02-23 11:14:00,
2013-02-23 06:16:00,44.7,43.9,29.92,West,268,0.0,2.0,97,0.00,,,0.25,Wunderground v.1.15,2013-02-23 11:16:00,
2013-02-23 06:17:00,44.7,43.9,29.91,West,268,0.0,2.0,97,0.00,,,0.25,Wunderground v.1.15,2013-02-23 11:17:00,
2013-02-23 06:19:00,44.7,43.9,29.91,West,267,0.0,2.0,97,0.00,,,0.25,Wunderground v.1.15,2013-02-23 11:19:00,
2013-02-23 06:21:00,44.7,43.9,29.91,West,268,0.0,0.0,97,0.00,,,0.25,Wunderground v.1.15,2013-02-23 11:21:00,
2013-02-23 06:22:00,44.7,43.9,29.90,West,267,0.0,0.0,97,0.00,,,0.25,Wunderground v.1.15,2013-02-23 11:22:00,
2013-02-23 06:24:00,44.7,43.9,29.90,West,267,0.0,2.0,97,0.00,,,0.25,Wunderground v.1.15,2013-02-23 11:24:00,
2013-02-23 06:25:00,44.7,43.9,29.90,West,268,0.0,2.0,97,0.00,,,0.25,Wunderground v.1.15,2013-02-23 11:25:00,
2013-02-23 06:26:00,44.7,43.9,29.90,West,267,1.0,2.0,97,0.00,,,0.25,Wunderground v.1.15,2013-02-23 11:26:00,
2013-02-23 06:28:00,44.7,43.9,29.91,West,267,0.0,2.0,97,0.00,,,0.25,Wunderground v.1.15,2013-02-23 11:28:00,
2013-02-23 06:30:00,44.8,44.0,29.91,West,267,0.0,0.0,97,0.00,,,0.25,Wunderground v.1.15,2013-02-23 11:30:00,
2013-02-23 06:31:00,44.8,44.0,29.91,West,267,0.0,0.0,97,0.00,,,0.25,Wunderground v.1.15,2013-02-23 11:31:00,
2013-02-23 06:33:00,44.8,44.0,29.91,West,268,0.0,0.0,97,0.00,,,0.25,Wunderground v.1.15,2013-02-23 11:33:00,
2013-02-23 06:35:00,44.8,44.0,29.90,West,267,0.0,0.0,97,0.00,,,0.25,Wunderground v.1.15,2013-02-23 11:35:00,
2013-02-23 06:37:00,44.8,44.0,29.90,West,267,0.0,0.0,97,0.00,,,0.25,Wunderground v.1.15,2013-02-23 11:37:00,
2013-02-23 06:38:00,44.9,44.1,29.91,West,267,0.0,0.0,97,0.00,,,0.25,Wunderground v.1.15,2013-02-23 11:38:00,
2013-02-23 06:40:00,44.9,44.1,29.91,West,268,0.0,0.0,97,0.00,,,0.25,Wunderground v.1.15,2013-02-23 11:40:00,
2013-02-23 06:42:00,44.9,44.1,29.91,West,268,0.0,1.0,97,0.00,,,0.25,Wunderground v.1.15,2013-02-23 11:42:00,
2013-02-23 06:43:00,44.9,44.1,29.91,West,268,1.0,2.0,97,0.00,,,0.25,Wunderground v.1.15,2013-02-23 11:43:00,
2013-02-23 06:45:00,44.9,44.1,29.92,West,267,2.0,2.0,97,0.00,,,0.25,Wunderground v.1.15,2013-02-23 11:45:00,
2013-02-23 06:47:00,44.9,44.1,29.91,West,268,0.0,2.0,97,0.00,,,0.25,Wunderground v.1.15,2013-02-23 11:47:00,
2013-02-23 06:49:00,44.9,44.1,29.92,West,267,1.0,2.0,97,0.00,,,0.25,Wunderground v.1.15,2013-02-23 11:49:00,
2013-02-23 06:50:00,44.9,44.1,29.92,West,268,0.0,1.0,97,0.00,,,0.25,Wunderground v.1.15,2013-02-23 11:50:00,
2013-02-23 06:53:00,44.9,44.1,29.91,West,268,0.0,1.0,97,0.00,,,0.25,Wunderground v.1.15,2013-02-23 11:53:00,
2013-02-23 06:54:00,44.9,44.1,29.92,West,268,1.0,1.0,97,0.00,,,0.25,Wunderground v.1.15,2013-02-23 11:54:00,
2013-02-23 06:55:00,44.9,44.1,29.92,West,267,2.0,2.0,97,0.00,,,0.25,Wunderground v.1.15,2013-02-23 11:55:00,
2013-02-23 06:56:00,44.9,44.1,29.92,West,267,0.0,2.0,97,0.00,,,0.25,Wunderground v.1.15,2013-02-23 11:56:00,
2013-02-23 06:58:00,45.0,44.2,29.92,West,267,0.0,2.0,97,0.00,,,0.25,Wunderground v.1.15,2013-02-23 11:58:00,
2013-02-23 06:59:00,45.0,44.2,29.91,West,268,0.0,2.0,97,0.00,,,0.25,Wunderground v.1.15,2013-02-23 11:59:00,
2013-02-23 07:01:00,45.0,44.2,29.91,West,267,0.0,1.0,97,0.00,,,0.25,Wunderground v.1.15,2013-02-23 12:01:00,
2013-02-23 07:02:00,45.0,44.2,29.91,West,268,0.0,1.0,97,0.00,,,0.25,Wunderground v.1.15,2013-02-23 12:02:00,
2013-02-23 07:03:00,44.9,44.1,29.91,West,267,0.0,1.0,97,0.00,,,0.25,Wunderground v.1.15,2013-02-23 12:03:00,
2013-02-23 07:04:00,45.0,44.2,29.91,West,267,0.0,1.0,97,0.00,,,0.25,Wunderground v.1.15,2013-02-23 12:04:00,
2013-02-23 07:06:00,44.9,44.1,29.92,West,267,0.0,1.0,97,0.00,,,0.25,Wunderground v.1.15,2013-02-23 12:06:00,
2013-02-23 07:07:00,45.0,44.2,29.92,West,268,0.0,2.0,97,0.00,,,0.25,Wunderground v.1.15,2013-02-23 12:07:00,
2013-02-23 07:08:00,45.0,44.2,29.92,West,267,0.0,2.0,97,0.00,,,0.25,Wunderground v.1.15,2013-02-23 12:08:00,
2013-02-23 07:09:00,44.9,44.1,29.92,West,268,0.0,2.0,97,0.00,,,0.25,Wunderground v.1.15,2013-02-23 12:09:00,
2013-02-23 07:11:00,45.0,44.2,29.92,West,268,0.0,2.0,97,0.00,,,0.25,Wunderground v.1.15,2013-02-23 12:11:00,
2013-02-23 07:12:00,45.0,44.2,29.92,West,267,0.0,2.0,97,0.00,,,0.25,Wunderground v.1.15,2013-02-23 12:12:00,
2013-02-23 07:13:00,45.0,44.2,29.92,West,268,0.0,2.0,97,0.00,,,0.25,Wunderground v.1.15,2013-02-23 12:13:00,
2013-02-23 07:15:00,45.0,44.2,29.92,West,268,0.0,2.0,97,0.00,,,0.25,Wunderground v.1.15,2013-02-23 12:15:00,
2013-02-23 07:17:00,45.0,44.2,29.92,West,267,0.0,2.0,97,0.00,,,0.25,Wunderground v.1.15,2013-02-23 12:17:00,
2013-02-23 07:18:00,45.0,44.2,29.92,West,268,0.0,2.0,97,0.00,,,0.25,Wunderground v.1.15,2013-02-23 12:18:00,
2013-02-23 07:21:00,45.0,44.2,29.92,West,267,0.0,1.0,97,0.00,,,0.25,Wunderground v.1.15,2013-02-23 12:21:00,
2013-02-23 07:22:00,45.0,44.2,29.92,West,267,0.0,1.0,97,0.00,,,0.25,Wunderground v.1.15,2013-02-23 12:22:00,
2013-02-23 07:23:00,45.0,44.2,29.92,West,267,1.0,1.0,97,0.00,,,0.25,Wunderground v.1.15,2013-02-23 12:23:00,
2013-02-23 07:26:00,45.0,44.2,29.92,West,268,0.0,2.0,97,0.00,,,0.25,Wunderground v.1.15,2013-02-23 12:26:00,
2013-02-23 07:27:00,45.0,44.2,29.91,West,267,0.0,2.0,97,0.00,,,0.25,Wunderground v.1.15,2013-02-23 12:27:00,
2013-02-23 07:28:00,45.0,44.2,29.91,West,267,0.0,2.0,97,0.00,,,0.25,Wunderground v.1.15,2013-02-23 12:28:00,
2013-02-23 07:29:00,45.0,44.2,29.92,West,267,0.0,2.0,97,0.00,,,0.25,Wunderground v.1.15,2013-02-23 12:29:00,
2013-02-23 07:31:00,45.0,44.2,29.92,West,268,0.0,0.0,97,0.00,,,0.25,Wunderground v.1.15,2013-02-23 12:31:00,
2013-02-23 07:33:00,45.0,44.2,29.92,West,267,0.0,0.0,97,0.00,,,0.25,Wunderground v.1.15,2013-02-23 12:33:00,
2013-02-23 07:34:00,45.0,44.2,29.92,West,267,0.0,0.0,97,0.00,,,0.25,Wunderground v.1.15,2013-02-23 12:34:00,
2013-02-23 07:36:00,45.0,44.2,29.92,West,268,0.0,0.0,97,0.00,,,0.25,Wunderground v.1.15,2013-02-23 12:36:00,
2013-02-23 07:38:00,45.0,44.2,29.92,West,267,0.0,0.0,97,0.00,,,0.25,Wunderground v.1.15,2013-02-23 12:38:00,
2013-02-23 07:39:00,45.0,44.2,29.92,West,267,0.0,0.0,97,0.00,,,0.25,Wunderground v.1.15,2013-02-23 12:39:00,
2013-02-23 07:42:00,45.0,44.2,29.92,West,268,0.0,0.0,97,0.00,,,0.25,Wunderground v.1.15,2013-02-23 12:42:00,
2013-02-23 07:43:00,45.0,44.2,29.92,West,267,0.0,0.0,97,0.00,,,0.25,Wunderground v.1.15,2013-02-23 12:43:00,
2013-02-23 07:44:00,45.0,44.2,29.92,West,267,0.0,0.0,97,0.00,,,0.25,Wunderground v.1.15,2013-02-23 12:44:00,
2013-02-23 07:47:00,45.0,44.2,29.92,West,267,0.0,0.0,97,0.00,,,0.25,Wunderground v.1.15,2013-02-23 12:47:00,
2013-02-23 07:48:00,45.1,44.3,29.92,West,268,0.0,0.0,97,0.00,,,0.25,Wunderground v.1.15,2013-02-23 12:48:00,
2013-02-23 07:50:00,45.1,44.3,29.92,West,268,0.0,0.0,97,0.00,,,0.25,Wunderground v.1.15,2013-02-23 12:50:00,
2013-02-23 07:52:00,45.1,44.3,29.91,West,267,0.0,1.0,97,0.00,,,0.25,Wunderground v.1.15,2013-02-23 12:52:00,
2013-02-23 07:53:00,45.1,44.3,29.91,West,267,0.0,1.0,97,0.00,,,0.25,Wunderground v.1.15,2013-02-23 12:53:00,
2013-02-23 07:55:00,45.2,44.4,29.91,West,268,1.0,1.0,97,0.00,,,0.25,Wunderground v.1.15,2013-02-23 12:55:00,
2013-02-23 07:57:00,45.2,44.4,29.91,West,268,0.0,1.0,97,0.00,,,0.25,Wunderground v.1.15,2013-02-23 12:57:00,
2013-02-23 07:58:00,45.2,44.4,29.91,West,268,0.0,1.0,97,0.00,,,0.25,Wunderground v.1.15,2013-02-23 12:58:00,
2013-02-23 07:59:00,45.2,44.4,29.91,West,267,0.0,1.0,97,0.00,,,0.25,Wunderground v.1.15,2013-02-23 12:59:00,
2013-02-23 08:00:00,45.2,44.4,29.91,West,267,0.0,0.0,97,0.00,,,0.25,Wunderground v.1.15,2013-02-23 13:00:00,
2013-02-23 08:03:00,45.3,44.5,29.91,West,267,0.0,0.0,97,0.00,,,0.25,Wunderground v.1.15,2013-02-23 13:03:00,
2013-02-23 08:04:00,45.3,44.5,29.91,West,268,0.0,0.0,97,0.00,,,0.25,Wunderground v.1.15,2013-02-23 13:04:00,
2013-02-23 08:05:00,45.4,44.6,29.92,West,267,0.0,0.0,97,0.00,,,0.25,Wunderground v.1.15,2013-02-23 13:05:00,
2013-02-23 08:08:00,45.5,44.7,29.92,West,267,0.0,0.0,97,0.00,,,0.25,Wunderground v.1.15,2013-02-23 13:08:00,
2013-02-23 08:10:00,45.5,44.7,29.92,West,267,0.0,0.0,97,0.00,,,0.25,Wunderground v.1.15,2013-02-23 13:10:00,
2013-02-23 08:11:00,45.6,44.8,29.92,West,267,0.0,0.0,97,0.00,,,0.25,Wunderground v.1.15,2013-02-23 13:11:00,
2013-02-23 08:13:00,45.6,44.8,29.92,West,267,0.0,1.0,97,0.00,,,0.25,Wunderground v.1.15,2013-02-23 13:13:00,
2013-02-23 08:15:00,45.7,44.9,29.92,West,267,0.0,1.0,97,0.00,,,0.25,Wunderground v.1.15,2013-02-23 13:15:00,
2013-02-23 08:16:00,45.8,45.0,29.92,West,268,0.0,1.0,97,0.00,,,0.25,Wunderground v.1.15,2013-02-23 13:16:00,
2013-02-23 08:18:00,45.8,45.0,29.92,West,267,1.0,1.0,97,0.00,,,0.25,Wunderground v.1.15,2013-02-23 13:18:00,
2013-02-23 08:19:00,45.9,45.1,29.92,West,268,1.0,1.0,97,0.00,,,0.25,Wunderground v.1.15,2013-02-23 13:19:00,
2013-02-23 08:21:00,45.9,45.1,29.92,West,268,0.0,0.0,97,0.00,,,0.25,Wunderground v.1.15,2013-02-23 13:21:00,
2013-02-23 08:23:00,46.1,45.3,29.92,West,267,0.0,0.0,97,0.00,,,0.25,Wunderground v.1.15,2013-02-23 13:23:00,
2013-02-23 08:24:00,46.1,45.3,29.92,West,267,0.0,0.0,97,0.00,,,0.25,Wunderground v.1.15,2013-02-23 13:24:00,
2013-02-23 08:26:00,46.1,45.3,29.93,West,267,0.0,0.0,97,0.00,,,0.25,Wunderground v.1.15,2013-02-23 13:26:00,
2013-02-23 08:28:00,46.2,45.4,29.92,West,268,0.0,0.0,97,0.00,,,0.25,Wunderground v.1.15,2013-02-23 13:28:00,
2013-02-23 08:30:00,46.3,45.5,29.92,West,267,0.0,0.0,97,0.00,,,0.25,Wunderground v.1.15,2013-02-23 13:30:00,
2013-02-23 08:31:00,46.3,45.5,29.92,West,267,1.0,2.0,97,0.00,,,0.25,Wunderground v.1.15,2013-02-23 13:31:00,
2013-02-23 08:32:00,46.3,45.5,29.92,West,268,0.0,2.0,97,0.00,,,0.25,Wunderground v.1.15,2013-02-23 13:32:00,
2013-02-23 08:34:00,46.3,45.5,29.92,West,268,1.0,2.0,97,0.00,,,0.25,Wunderground v.1.15,2013-02-23 13:34:00,
2013-02-23 08:35:00,46.3,45.5,29.92,West,268,0.0,2.0,97,0.00,,,0.25,Wunderground v.1.15,2013-02-23 13:35:00,
2013-02-23 08:36:00,46.3,45.5,29.92,West,267,0.0,2.0,97,0.00,,,0.25,Wunderground v.1.15,2013-02-23 13:36:00,
2013-02-23 08:37:00,46.3,45.5,29.92,West,270,0.0,2.0,97,0.00,,,0.25,Wunderground v.1.15,2013-02-23 13:37:00,
2013-02-23 08:39:00,46.4,45.6,29.92,West,273,0.0,2.0,97,0.00,,,0.25,Wunderground v.1.15,2013-02-23 13:39:00,
2013-02-23 08:41:00,46.4,45.6,29.92,West,262,0.0,0.0,97,0.00,,,0.25,Wunderground v.1.15,2013-02-23 13:41:00,
2013-02-23 08:42:00,46.4,45.6,29.92,West,262,1.0,1.0,97,0.00,,,0.25,Wunderground v.1.15,2013-02-23 13:42:00,
2013-02-23 08:44:00,46.4,45.6,29.92,West,261,1.0,1.0,97,0.00,,,0.25,Wunderground v.1.15,2013-02-23 13:44:00,
2013-02-23 08:46:00,46.5,45.7,29.92,West,262,0.0,1.0,97,0.00,,,0.25,Wunderground v.1.15,2013-02-23 13:46:00,
2013-02-23 08:47:00,46.4,45.6,29.92,West,262,0.0,1.0,97,0.00,,,0.25,Wunderground v.1.15,2013-02-23 13:47:00,
2013-02-23 08:50:00,46.5,45.7,29.93,West,262,0.0,0.0,97,0.00,,,0.25,Wunderground v.1.15,2013-02-23 13:50:00,
2013-02-23 08:51:00,46.5,45.7,29.93,West,262,0.0,0.0,97,0.00,,,0.25,Wunderground v.1.15,2013-02-23 13:51:00,
2013-02-23 08:53:00,46.6,45.8,29.93,West,262,0.0,0.0,97,0.00,,,0.25,Wunderground v.1.15,2013-02-23 13:53:00,
2013-02-23 08:55:00,46.7,45.9,29.93,West,261,0.0,0.0,97,0.00,,,0.25,Wunderground v.1.15,2013-02-23 13:55:00,
2013-02-23 08:56:00,46.7,45.9,29.93,West,262,0.0,0.0,97,0.00,,,0.25,Wunderground v.1.15,2013-02-23 13:56:00,
2013-02-23 08:58:00,46.8,46.0,29.93,West,262,0.0,0.0,97,0.00,,,0.25,Wunderground v.1.15,2013-02-23 13:58:00,
2013-02-23 09:01:00,46.9,46.1,29.93,West,259,0.0,0.0,97,0.00,,,0.25,Wunderground v.1.15,2013-02-23 14:01:00,
2013-02-23 09:03:00,46.9,46.1,29.93,West,259,0.0,1.0,97,0.00,,,0.25,Wunderground v.1.15,2013-02-23 14:03:00,
2013-02-23 09:06:00,46.9,46.1,29.93,West,259,0.0,1.0,97,0.00,,,0.25,Wunderground v.1.15,2013-02-23 14:06:00,
2013-02-23 09:07:00,46.9,46.1,29.93,West,259,0.0,1.0,97,0.00,,,0.25,Wunderground v.1.15,2013-02-23 14:07:00,
2013-02-23 09:08:00,46.9,46.1,29.93,West,259,0.0,1.0,97,0.00,,,0.25,Wunderground v.1.15,2013-02-23 14:08:00,
2013-02-23 09:09:00,46.9,46.1,29.93,West,259,0.0,1.0,97,0.00,,,0.25,Wunderground v.1.15,2013-02-23 14:09:00,
2013-02-23 09:11:00,47.0,46.2,29.92,West,259,0.0,1.0,97,0.00,,,0.25,Wunderground v.1.15,2013-02-23 14:11:00,
2013-02-23 09:12:00,47.0,46.2,29.92,West,259,0.0,1.0,97,0.00,,,0.25,Wunderground v.1.15,2013-02-23 14:12:00,
2013-02-23 09:14:00,47.0,46.2,29.92,West,259,0.0,1.0,97,0.00,,,0.25,Wunderground v.1.15,2013-02-23 14:14:00,
2013-02-23 09:15:00,47.1,46.3,29.92,West,259,1.0,1.0,97,0.00,,,0.25,Wunderground v.1.15,2013-02-23 14:15:00,
2013-02-23 09:17:00,47.2,46.4,29.93,West,259,0.0,1.0,97,0.00,,,0.25,Wunderground v.1.15,2013-02-23 14:17:00,
2013-02-23 09:19:00,47.2,46.4,29.92,West,259,0.0,1.0,97,0.00,,,0.25,Wunderground v.1.15,2013-02-23 14:19:00,
2013-02-23 09:20:00,47.2,46.4,29.93,West,259,1.0,1.0,97,0.00,,,0.25,Wunderground v.1.15,2013-02-23 14:20:00,
2013-02-23 09:22:00,47.2,46.4,29.92,West,259,0.0,1.0,97,0.00,,,0.25,Wunderground v.1.15,2013-02-23 14:22:00,
2013-02-23 09:24:00,47.2,46.4,29.92,West,259,0.0,1.0,97,0.00,,,0.25,Wunderground v.1.15,2013-02-23 14:24:00,
2013-02-23 09:25:00,47.2,46.4,29.92,West,259,0.0,1.0,97,0.00,,,0.25,Wunderground v.1.15,2013-02-23 14:25:00,
2013-02-23 09:27:00,47.2,46.4,29.92,West,259,0.0,1.0,97,0.00,,,0.25,Wunderground v.1.15,2013-02-23 14:27:00,
2013-02-23 09:29:00,47.3,46.5,29.92,West,259,0.0,1.0,97,0.00,,,0.25,Wunderground v.1.15,2013-02-23 14:29:00,
2013-02-23 09:30:00,47.3,46.5,29.92,West,259,0.0,0.0,97,0.00,,,0.25,Wunderground v.1.15,2013-02-23 14:30:00,
2013-02-23 09:33:00,47.4,46.6,29.92,West,259,0.0,1.0,97,0.00,,,0.25,Wunderground v.1.15,2013-02-23 14:33:00,
2013-02-23 09:34:00,47.4,46.6,29.92,West,259,1.0,1.0,97,0.00,,,0.25,Wunderground v.1.15,2013-02-23 14:34:00,
2013-02-23 09:36:00,47.5,46.7,29.92,West,259,0.0,1.0,97,0.00,,,0.25,Wunderground v.1.15,2013-02-23 14:36:00,
2013-02-23 09:38:00,47.6,46.8,29.92,West,259,0.0,1.0,97,0.00,,,0.25,Wunderground v.1.15,2013-02-23 14:38:00,
2013-02-23 09:39:00,47.6,46.8,29.92,West,259,1.0,1.0,97,0.00,,,0.25,Wunderground v.1.15,2013-02-23 14:39:00,
2013-02-23 09:41:00,47.7,46.9,29.92,West,259,0.0,1.0,97,0.00,,,0.25,Wunderground v.1.15,2013-02-23 14:41:00,
2013-02-23 09:43:00,47.7,46.9,29.92,West,259,0.0,2.0,97,0.00,,,0.25,Wunderground v.1.15,2013-02-23 14:43:00,
2013-02-23 09:44:00,47.7,46.9,29.92,West,259,0.0,2.0,97,0.00,,,0.25,Wunderground v.1.15,2013-02-23 14:44:00,
2013-02-23 09:46:00,47.8,47.0,29.91,West,259,1.0,2.0,97,0.00,,,0.25,Wunderground v.1.15,2013-02-23 14:46:00,
2013-02-23 09:48:00,47.9,47.1,29.92,West,259,0.0,2.0,97,0.00,,,0.25,Wunderground v.1.15,2013-02-23 14:48:00,
2013-02-23 09:50:00,48.0,47.2,29.91,West,259,0.0,1.0,97,0.00,,,0.25,Wunderground v.1.15,2013-02-23 14:50:00,
2013-02-23 09:51:00,48.0,47.2,29.91,West,259,0.0,1.0,97,0.00,,,0.25,Wunderground v.1.15,2013-02-23 14:51:00,
2013-02-23 09:53:00,48.2,47.4,29.91,West,259,0.0,1.0,97,0.00,,,0.25,Wunderground v.1.15,2013-02-23 14:53:00,
2013-02-23 09:54:00,48.3,47.5,29.91,West,259,1.0,1.0,97,0.00,,,0.25,Wunderground v.1.15,2013-02-23 14:54:00,
2013-02-23 09:55:00,48.4,47.6,29.91,West,259,0.0,2.0,97,0.00,,,0.25,Wunderground v.1.15,2013-02-23 14:55:00,
2013-02-23 09:56:00,48.5,47.7,29.91,West,259,2.0,3.0,97,0.00,,,0.25,Wunderground v.1.15,2013-02-23 14:56:00,
2013-02-23 09:59:00,48.7,47.9,29.91,West,261,2.0,3.0,97,0.00,,,0.25,Wunderground v.1.15,2013-02-23 14:59:00,
2013-02-23 10:00:00,48.7,47.9,29.91,West,260,1.0,2.0,97,0.00,,,0.25,Wunderground v.1.15,2013-02-23 15:00:00,
2013-02-23 10:02:00,48.8,48.0,29.90,West,261,1.0,3.0,97,0.00,,,0.25,Wunderground v.1.15,2013-02-23 15:02:00,
2013-02-23 10:04:00,48.8,48.0,29.91,West,273,4.0,4.0,97,0.00,,,0.25,Wunderground v.1.15,2013-02-23 15:04:00,
2013-02-23 10:05:00,48.7,47.9,29.90,West,276,0.0,4.0,97,0.00,,,0.25,Wunderground v.1.15,2013-02-23 15:05:00,
2013-02-23 10:07:00,48.7,47.6,29.90,West,276,2.0,4.0,96,0.00,,,0.25,Wunderground v.1.15,2013-02-23 15:07:00,
2013-02-23 10:09:00,48.8,47.7,29.90,West,276,0.0,4.0,96,0.00,,,0.25,Wunderground v.1.15,2013-02-23 15:09:00,
2013-02-23 10:10:00,48.8,47.7,29.90,West,276,0.0,2.0,96,0.00,,,0.25,Wunderground v.1.15,2013-02-23 15:10:00,
2013-02-23 10:12:00,48.9,47.8,29.90,West,276,2.0,2.0,96,0.00,,,0.25,Wunderground v.1.15,2013-02-23 15:12:00,
2013-02-23 10:14:00,49.1,48.0,29.90,West,276,0.0,2.0,96,0.00,,,0.25,Wunderground v.1.15,2013-02-23 15:14:00,
2013-02-23 10:15:00,49.2,48.1,29.90,West,276,3.0,3.0,96,0.00,,,0.25,Wunderground v.1.15,2013-02-23 15:15:00,
2013-02-23 10:17:00,49.2,48.1,29.90,West,276,1.0,3.0,96,0.00,,,0.25,Wunderground v.1.15,2013-02-23 15:17:00,
2013-02-23 10:18:00,49.2,48.1,29.90,West,276,2.0,3.0,96,0.00,,,0.25,Wunderground v.1.15,2013-02-23 15:18:00,
2013-02-23 10:19:00,49.2,48.1,29.90,West,276,1.0,3.0,96,0.00,,,0.25,Wunderground v.1.15,2013-02-23 15:19:00,
2013-02-23 10:20:00,49.2,47.8,29.90,West,276,2.0,2.0,95,0.00,,,0.25,Wunderground v.1.15,2013-02-23 15:20:00,
2013-02-23 10:22:00,49.3,47.9,29.90,West,276,1.0,2.0,95,0.00,,,0.25,Wunderground v.1.15,2013-02-23 15:22:00,
2013-02-23 10:23:00,49.3,47.9,29.90,West,276,1.0,2.0,95,0.00,,,0.25,Wunderground v.1.15,2013-02-23 15:23:00,
2013-02-23 10:24:00,49.2,47.5,29.90,West,276,1.0,2.0,94,0.00,,,0.25,Wunderground v.1.15,2013-02-23 15:24:00,
2013-02-23 10:26:00,49.3,47.9,29.90,West,276,1.0,2.0,95,0.00,,,0.25,Wunderground v.1.15,2013-02-23 15:26:00,
2013-02-23 10:27:00,49.3,47.9,29.90,West,276,0.0,2.0,95,0.00,,,0.25,Wunderground v.1.15,2013-02-23 15:27:00,
2013-02-23 10:28:00,49.4,48.0,29.90,West,276,0.0,2.0,95,0.00,,,0.25,Wunderground v.1.15,2013-02-23 15:28:00,
2013-02-23 10:29:00,49.5,48.1,29.90,West,276,0.0,2.0,95,0.00,,,0.25,Wunderground v.1.15,2013-02-23 15:29:00,
2013-02-23 10:31:00,49.5,48.1,29.90,West,276,1.0,3.0,95,0.00,,,0.25,Wunderground v.1.15,2013-02-23 15:31:00,
2013-02-23 10:32:00,49.5,47.8,29.90,West,279,4.0,5.0,94,0.00,,,0.25,Wunderground v.1.15,2013-02-23 15:32:00,
2013-02-23 10:33:00,49.5,47.8,29.90,West,279,0.0,5.0,94,0.00,,,0.25,Wunderground v.1.15,2013-02-23 15:33:00,
2013-02-23 10:35:00,49.6,47.9,29.89,West,279,0.0,5.0,94,0.00,,,0.25,Wunderground v.1.15,2013-02-23 15:35:00,
2013-02-23 10:36:00,49.6,47.9,29.90,West,279,0.0,5.0,94,0.00,,,0.25,Wunderground v.1.15,2013-02-23 15:36:00,
2013-02-23 10:37:00,49.6,47.9,29.90,West,279,0.0,5.0,94,0.00,,,0.25,Wunderground v.1.15,2013-02-23 15:37:00,
2013-02-23 10:39:00,49.6,47.9,29.90,West,279,0.0,5.0,94,0.00,,,0.25,Wunderground v.1.15,2013-02-23 15:39:00,
2013-02-23 10:41:00,49.6,47.9,29.90,West,279,0.0,1.0,94,0.00,,,0.25,Wunderground v.1.15,2013-02-23 15:41:00,
2013-02-23 10:42:00,49.6,47.9,29.90,West,279,0.0,1.0,94,0.00,,,0.25,Wunderground v.1.15,2013-02-23 15:42:00,
2013-02-23 10:43:00,49.6,47.9,29.90,West,279,0.0,1.0,94,0.00,,,0.25,Wunderground v.1.15,2013-02-23 15:43:00,
2013-02-23 10:44:00,49.7,48.0,29.90,West,279,0.0,1.0,94,0.00,,,0.25,Wunderground v.1.15,2013-02-23 15:44:00,
2013-02-23 10:46:00,49.7,48.0,29.90,West,279,0.0,1.0,94,0.00,,,0.25,Wunderground v.1.15,2013-02-23 15:46:00,
2013-02-23 10:47:00,49.7,48.0,29.90,West,279,0.0,1.0,94,0.00,,,0.25,Wunderground v.1.15,2013-02-23 15:47:00,
2013-02-23 10:48:00,49.7,48.0,29.91,West,279,3.0,3.0,94,0.00,,,0.25,Wunderground v.1.15,2013-02-23 15:48:00,
2013-02-23 10:49:00,49.7,48.0,29.90,West,279,1.0,3.0,94,0.00,,,0.25,Wunderground v.1.15,2013-02-23 15:49:00,
2013-02-23 10:51:00,49.7,47.8,29.90,West,279,0.0,1.0,93,0.00,,,0.25,Wunderground v.1.15,2013-02-23 15:51:00,
2013-02-23 10:52:00,49.7,47.8,29.90,West,279,0.0,1.0,93,0.00,,,0.25,Wunderground v.1.15,2013-02-23 15:52:00,
2013-02-23 10:54:00,49.8,47.9,29.91,West,279,0.0,1.0,93,0.00,,,0.25,Wunderground v.1.15,2013-02-23 15:54:00,
2013-02-23 10:57:00,49.8,47.9,29.91,West,279,2.0,2.0,93,0.00,,,0.25,Wunderground v.1.15,2013-02-23 15:57:00,
2013-02-23 10:59:00,49.7,47.5,29.91,West,279,0.0,3.0,92,0.00,,,0.25,Wunderground v.1.15,2013-02-23 15:59:00,
2013-02-23 11:02:00,49.7,47.8,29.91,West,279,0.0,0.0,93,0.00,,,0.25,Wunderground v.1.15,2013-02-23 16:02:00,
2013-02-23 11:04:00,49.8,47.9,29.91,West,279,0.0,2.0,93,0.00,,,0.25,Wunderground v.1.15,2013-02-23 16:04:00,
2013-02-23 11:06:00,49.8,47.6,29.91,West,279,0.0,2.0,92,0.00,,,0.25,Wunderground v.1.15,2013-02-23 16:06:00,
2013-02-23 11:07:00,49.8,47.6,29.91,West,279,1.0,2.0,92,0.00,,,0.25,Wunderground v.1.15,2013-02-23 16:07:00,
2013-02-23 11:10:00,49.9,47.7,29.91,West,279,1.0,1.0,92,0.00,,,0.25,Wunderground v.1.15,2013-02-23 16:10:00,
2013-02-23 11:11:00,49.9,47.7,29.91,West,279,3.0,3.0,92,0.00,,,0.25,Wunderground v.1.15,2013-02-23 16:11:00,
2013-02-23 11:12:00,49.9,47.7,29.91,West,279,2.0,3.0,92,0.00,,,0.25,Wunderground v.1.15,2013-02-23 16:12:00,
2013-02-23 11:13:00,49.9,47.7,29.91,West,279,2.0,3.0,92,0.00,,,0.25,Wunderground v.1.15,2013-02-23 16:13:00,
2013-02-23 11:15:00,50.0,47.8,29.91,West,279,0.0,3.0,92,0.00,,,0.25,Wunderground v.1.15,2013-02-23 16:15:00,
2013-02-23 11:16:00,50.0,47.8,29.91,West,279,1.0,3.0,92,0.00,,,0.25,Wunderground v.1.15,2013-02-23 16:16:00,
2013-02-23 11:17:00,50.1,47.9,29.91,West,279,0.0,3.0,92,0.00,,,0.25,Wunderground v.1.15,2013-02-23 16:17:00,
2013-02-23 11:18:00,50.1,47.9,29.91,West,279,0.0,3.0,92,0.00,,,0.25,Wunderground v.1.15,2013-02-23 16:18:00,
2013-02-23 11:20:00,50.3,48.4,29.91,West,279,1.0,1.0,93,0.00,,,0.25,Wunderground v.1.15,2013-02-23 16:20:00,
2013-02-23 11:21:00,50.4,48.5,29.91,West,279,0.0,2.0,93,0.00,,,0.25,Wunderground v.1.15,2013-02-23 16:21:00,
2013-02-23 11:22:00,50.4,48.5,29.91,West,279,3.0,3.0,93,0.00,,,0.25,Wunderground v.1.15,2013-02-23 16:22:00,
2013-02-23 11:24:00,50.4,47.6,29.91,WNW,283,2.0,4.0,90,0.00,,,0.25,Wunderground v.1.15,2013-02-23 16:24:00,
2013-02-23 11:25:00,50.3,47.5,29.90,WNW,283,0.0,4.0,90,0.00,,,0.25,Wunderground v.1.15,2013-02-23 16:25:00,
2013-02-23 11:26:00,50.4,47.9,29.90,WNW,283,1.0,4.0,91,0.00,,,0.25,Wunderground v.1.15,2013-02-23 16:26:00,
2013-02-23 11:27:00,50.4,47.9,29.90,WNW,283,1.0,4.0,91,0.00,,,0.25,Wunderground v.1.15,2013-02-23 16:27:00,
2013-02-23 11:29:00,50.5,48.0,29.90,WNW,283,0.0,4.0,91,0.00,,,0.25,Wunderground v.1.15,2013-02-23 16:29:00,
2013-02-23 11:30:00,50.4,47.9,29.90,WNW,283,3.0,3.0,91,0.00,,,0.25,Wunderground v.1.15,2013-02-23 16:30:00,
2013-02-23 11:32:00,50.5,47.7,29.90,WNW,283,0.0,3.0,90,0.00,,,0.25,Wunderground v.1.15,2013-02-23 16:32:00,
2013-02-23 11:34:00,50.6,48.1,29.90,WNW,283,1.0,3.0,91,0.00,,,0.25,Wunderground v.1.15,2013-02-23 16:34:00,
2013-02-23 11:35:00,50.6,48.1,29.90,WNW,283,0.0,3.0,91,0.00,,,0.25,Wunderground v.1.15,2013-02-23 16:35:00,
2013-02-23 11:37:00,50.6,48.1,29.90,WNW,283,0.0,3.0,91,0.00,,,0.25,Wunderground v.1.15,2013-02-23 16:37:00,
2013-02-23 11:38:00,50.7,47.9,29.90,WNW,283,1.0,3.0,90,0.00,,,0.25,Wunderground v.1.15,2013-02-23 16:38:00,
2013-02-23 11:40:00,50.8,48.0,29.90,WNW,283,0.0,3.0,90,0.00,,,0.25,Wunderground v.1.15,2013-02-23 16:40:00,
2013-02-23 11:42:00,51.0,48.2,29.91,WNW,283,2.0,3.0,90,0.00,,,0.25,Wunderground v.1.15,2013-02-23 16:42:00,
2013-02-23 11:43:00,51.0,48.2,29.91,WNW,283,1.0,3.0,90,0.00,,,0.25,Wunderground v.1.15,2013-02-23 16:43:00,
2013-02-23 11:45:00,51.0,47.6,29.91,WNW,283,2.0,3.0,88,0.00,,,0.25,Wunderground v.1.15,2013-02-23 16:45:00,
2013-02-23 11:46:00,51.1,48.9,29.90,WNW,283,1.0,3.0,92,0.00,,,0.25,Wunderground v.1.15,2013-02-23 16:46:00,
2013-02-23 11:48:00,51.2,48.1,29.91,WNW,284,1.0,3.0,89,0.00,,,0.25,Wunderground v.1.15,2013-02-23 16:48:00,
2013-02-23 11:49:00,51.2,47.8,29.91,WNW,284,1.0,3.0,88,0.00,,,0.25,Wunderground v.1.15,2013-02-23 16:49:00,
2013-02-23 11:50:00,51.2,47.8,29.91,WNW,283,1.0,2.0,88,0.00,,,0.25,Wunderground v.1.15,2013-02-23 16:50:00,
2013-02-23 11:51:00,51.2,47.5,29.91,WNW,283,1.0,2.0,87,0.00,,,0.25,Wunderground v.1.15,2013-02-23 16:51:00,
2013-02-23 11:53:00,51.2,47.5,29.91,WNW,284,1.0,2.0,87,0.00,,,0.25,Wunderground v.1.15,2013-02-23 16:53:00,
2013-02-23 11:55:00,51.2,47.5,29.90,WNW,283,0.0,2.0,87,0.00,,,0.25,Wunderground v.1.15,2013-02-23 16:55:00,
2013-02-23 11:56:00,51.2,47.8,29.90,WNW,283,0.0,2.0,88,0.00,,,0.25,Wunderground v.1.15,2013-02-23 16:56:00,
2013-02-23 11:58:00,51.2,47.8,29.90,WNW,284,0.0,3.0,88,0.00,,,0.25,Wunderground v.1.15,2013-02-23 16:58:00,
2013-02-23 12:00:00,51.2,47.5,29.90,WNW,283,1.0,2.0,87,0.00,,,0.25,Wunderground v.1.15,2013-02-23 17:00:00,
2013-02-23 12:01:00,51.2,47.5,29.90,WNW,284,3.0,3.0,87,0.00,,,0.25,Wunderground v.1.15,2013-02-23 17:01:00,
2013-02-23 12:03:00,51.2,47.8,29.90,WNW,284,1.0,3.0,88,0.00,,,0.25,Wunderground v.1.15,2013-02-23 17:03:00,
2013-02-23 12:05:00,51.2,47.5,29.90,WNW,283,2.0,3.0,87,0.00,,,0.25,Wunderground v.1.15,2013-02-23 17:05:00,
2013-02-23 12:06:00,51.2,47.8,29.90,WNW,283,0.0,3.0,88,0.00,,,0.25,Wunderground v.1.15,2013-02-23 17:06:00,
2013-02-23 12:09:00,51.3,48.5,29.90,WNW,284,0.0,3.0,90,0.00,,,0.25,Wunderground v.1.15,2013-02-23 17:09:00,
2013-02-23 12:10:00,51.3,48.2,29.90,WNW,284,0.0,1.0,89,0.00,,,0.25,Wunderground v.1.15,2013-02-23 17:10:00,
2013-02-23 12:11:00,51.3,48.2,29.90,WNW,284,0.0,1.0,89,0.00,,,0.25,Wunderground v.1.15,2013-02-23 17:11:00,
2013-02-23 12:14:00,51.3,48.2,29.90,WNW,284,0.0,2.0,89,0.00,,,0.25,Wunderground v.1.15,2013-02-23 17:14:00,
2013-02-23 12:15:00,51.3,48.2,29.90,WNW,283,0.0,2.0,89,0.00,,,0.25,Wunderground v.1.15,2013-02-23 17:15:00,
2013-02-23 12:16:00,51.3,48.2,29.89,WNW,284,2.0,2.0,89,0.00,,,0.25,Wunderground v.1.15,2013-02-23 17:16:00,
2013-02-23 12:19:00,51.4,48.3,29.89,WNW,284,1.0,2.0,89,0.00,,,0.25,Wunderground v.1.15,2013-02-23 17:19:00,
2013-02-23 12:20:00,51.3,48.2,29.89,WNW,284,1.0,2.0,89,0.00,,,0.25,Wunderground v.1.15,2013-02-23 17:20:00,
2013-02-23 12:21:00,51.3,47.9,29.89,WNW,284,1.0,2.0,88,0.00,,,0.25,Wunderground v.1.15,2013-02-23 17:21:00,
2013-02-23 12:22:00,51.3,47.9,29.89,WNW,284,2.0,4.0,88,0.00,,,0.25,Wunderground v.1.15,2013-02-23 17:22:00,
2013-02-23 12:25:00,51.2,47.8,29.89,WNW,284,1.0,4.0,88,0.00,,,0.25,Wunderground v.1.15,2013-02-23 17:25:00,
2013-02-23 12:26:00,51.2,47.8,29.89,WNW,284,0.0,4.0,88,0.00,,,0.25,Wunderground v.1.15,2013-02-23 17:26:00,
2013-02-23 12:27:00,51.2,47.8,29.89,WNW,284,2.0,4.0,88,0.00,,,0.25,Wunderground v.1.15,2013-02-23 17:27:00,
2013-02-23 12:30:00,51.1,48.0,29.89,WNW,284,2.0,2.0,89,0.00,,,0.25,Wunderground v.1.15,2013-02-23 17:30:00,
2013-02-23 12:31:00,51.1,47.7,29.89,WNW,283,0.0,2.0,88,0.00,,,0.25,Wunderground v.1.15,2013-02-23 17:31:00,
2013-02-23 12:32:00,51.1,47.7,29.89,WNW,283,1.0,2.0,88,0.00,,,0.25,Wunderground v.1.15,2013-02-23 17:32:00,
2013-02-23 12:34:00,51.2,47.8,29.89,WNW,283,0.0,2.0,88,0.00,,,0.25,Wunderground v.1.15,2013-02-23 17:34:00,
2013-02-23 12:35:00,51.2,47.8,29.88,WNW,284,0.0,2.0,88,0.00,,,0.25,Wunderground v.1.15,2013-02-23 17:35:00,
2013-02-23 12:36:00,51.2,48.1,29.88,WNW,283,0.0,2.0,89,0.00,,,0.25,Wunderground v.1.15,2013-02-23 17:36:00,
2013-02-23 12:37:00,51.2,48.1,29.89,WNW,283,0.0,2.0,89,0.00,,,0.25,Wunderground v.1.15,2013-02-23 17:37:00,
2013-02-23 12:39:00,51.2,48.1,29.89,WNW,284,0.0,2.0,89,0.00,,,0.25,Wunderground v.1.15,2013-02-23 17:39:00,
2013-02-23 12:40:00,51.3,48.2,29.89,WNW,283,0.0,1.0,89,0.00,,,0.25,Wunderground v.1.15,2013-02-23 17:40:00,
2013-02-23 12:42:00,51.3,48.2,29.88,WNW,284,2.0,2.0,89,0.00,,,0.25,Wunderground v.1.15,2013-02-23 17:42:00,
2013-02-23 12:44:00,51.3,47.9,29.89,WNW,284,1.0,3.0,88,0.00,,,0.25,Wunderground v.1.15,2013-02-23 17:44:00,
2013-02-23 12:45:00,51.3,47.9,29.89,WNW,283,0.0,3.0,88,0.00,,,0.25,Wunderground v.1.15,2013-02-23 17:45:00,
2013-02-23 12:47:00,51.2,47.8,29.88,WNW,283,0.0,3.0,88,0.00,,,0.25,Wunderground v.1.15,2013-02-23 17:47:00,
2013-02-23 12:50:00,51.3,48.2,29.88,WNW,284,0.0,1.0,89,0.00,,,0.25,Wunderground v.1.15,2013-02-23 17:50:00,
2013-02-23 12:52:00,51.3,48.2,29.88,WNW,284,0.0,1.0,89,0.00,,,0.25,Wunderground v.1.15,2013-02-23 17:52:00,
2013-02-23 12:53:00,51.4,48.3,29.88,WNW,284,0.0,1.0,89,0.00,,,0.25,Wunderground v.1.15,2013-02-23 17:53:00,
2013-02-23 12:55:00,51.4,48.0,29.88,WNW,284,1.0,3.0,88,0.00,,,0.25,Wunderground v.1.15,2013-02-23 17:55:00,
2013-02-23 12:58:00,51.5,47.8,29.88,WNW,283,1.0,3.0,87,0.00,,,0.25,Wunderground v.1.15,2013-02-23 17:58:00,
2013-02-23 12:59:00,51.5,47.8,29.88,WNW,284,1.0,3.0,87,0.00,,,0.25,Wunderground v.1.15,2013-02-23 17:59:00,
2013-02-23 13:00:00,51.5,48.1,29.88,WNW,284,1.0,1.0,88,0.00,,,0.25,Wunderground v.1.15,2013-02-23 18:00:00,
2013-02-23 13:01:00,51.6,48.2,29.88,WNW,284,0.0,1.0,88,0.00,,,0.25,Wunderground v.1.15,2013-02-23 18:01:00,
2013-02-23 13:03:00,51.7,48.6,29.88,WNW,284,2.0,2.0,89,0.00,,,0.25,Wunderground v.1.15,2013-02-23 18:03:00,
2013-02-23 13:04:00,51.9,48.8,29.88,WNW,283,1.0,2.0,89,0.00,,,0.25,Wunderground v.1.15,2013-02-23 18:04:00,
2013-02-23 13:05:00,51.9,48.5,29.88,WNW,283,2.0,3.0,88,0.00,,,0.25,Wunderground v.1.15,2013-02-23 18:05:00,
2013-02-23 13:06:00,51.9,48.5,29.88,WNW,284,2.0,3.0,88,0.00,,,0.25,Wunderground v.1.15,2013-02-23 18:06:00,
2013-02-23 13:08:00,52.0,48.3,29.87,WNW,283,1.0,3.0,87,0.00,,,0.25,Wunderground v.1.15,2013-02-23 18:08:00,
2013-02-23 13:10:00,52.0,48.3,29.88,WNW,283,1.0,1.0,87,0.00,,,0.25,Wunderground v.1.15,2013-02-23 18:10:00,
2013-02-23 13:11:00,52.1,48.3,29.88,WNW,283,1.0,3.0,87,0.00,,,0.25,Wunderground v.1.15,2013-02-23 18:11:00,
2013-02-23 13:13:00,52.2,48.8,29.88,WNW,284,3.0,3.0,88,0.00,,,0.25,Wunderground v.1.15,2013-02-23 18:13:00,
2013-02-23 13:15:00,52.3,48.5,29.88,WNW,284,0.0,3.0,87,0.00,,,0.25,Wunderground v.1.15,2013-02-23 18:15:00,
2013-02-23 13:16:00,52.3,48.5,29.88,WNW,283,0.0,3.0,87,0.00,,,0.25,Wunderground v.1.15,2013-02-23 18:16:00,
2013-02-23 13:19:00,52.3,48.2,29.87,WNW,284,2.0,3.0,86,0.00,,,0.25,Wunderground v.1.15,2013-02-23 18:19:00,
2013-02-23 13:20:00,52.2,48.1,29.87,WNW,284,2.0,2.0,86,0.00,,,0.25,Wunderground v.1.15,2013-02-23 18:20:00,
2013-02-23 13:21:00,52.2,48.1,29.87,WNW,283,4.0,4.0,86,0.00,,,0.25,Wunderground v.1.15,2013-02-23 18:21:00,
2013-02-23 13:24:00,52.2,48.1,29.87,WNW,284,1.0,4.0,86,0.00,,,0.25,Wunderground v.1.15,2013-02-23 18:24:00,
2013-02-23 13:25:00,52.2,48.4,29.87,WNW,284,1.0,4.0,87,0.00,,,0.25,Wunderground v.1.15,2013-02-23 18:25:00,
2013-02-23 13:26:00,52.1,48.3,29.87,WNW,283,0.0,4.0,87,0.00,,,0.25,Wunderground v.1.15,2013-02-23 18:26:00,
2013-02-23 13:27:00,52.2,48.4,29.87,WNW,283,1.0,4.0,87,0.00,,,0.25,Wunderground v.1.15,2013-02-23 18:27:00,
2013-02-23 13:29:00,52.2,48.4,29.86,WNW,284,0.0,4.0,87,0.00,,,0.25,Wunderground v.1.15,2013-02-23 18:29:00,
2013-02-23 13:30:00,52.3,48.9,29.86,WNW,284,2.0,3.0,88,0.00,,,0.25,Wunderground v.1.15,2013-02-23 18:30:00,
2013-02-23 13:31:00,52.3,48.9,29.86,WNW,284,1.0,3.0,88,0.00,,,0.25,Wunderground v.1.15,2013-02-23 18:31:00,
2013-02-23 13:32:00,52.3,48.5,29.86,WNW,284,1.0,3.0,87,0.00,,,0.25,Wunderground v.1.15,2013-02-23 18:32:00,
2013-02-23 13:34:00,52.5,48.7,29.86,WNW,283,0.0,3.0,87,0.00,,,0.25,Wunderground v.1.15,2013-02-23 18:34:00,
2013-02-23 13:35:00,52.5,48.7,29.86,WNW,283,0.0,3.0,87,0.00,,,0.25,Wunderground v.1.15,2013-02-23 18:35:00,
2013-02-23 13:36:00,52.6,48.8,29.86,WNW,284,0.0,3.0,87,0.00,,,0.25,Wunderground v.1.15,2013-02-23 18:36:00,
2013-02-23 13:37:00,52.6,49.1,29.86,WNW,284,0.0,3.0,88,0.00,,,0.25,Wunderground v.1.15,2013-02-23 18:37:00,
2013-02-23 13:40:00,52.8,49.0,29.86,WNW,284,0.0,1.0,87,0.00,,,0.25,Wunderground v.1.15,2013-02-23 18:40:00,
2013-02-23 13:41:00,52.8,49.0,29.86,WNW,283,1.0,1.0,87,0.00,,,0.25,Wunderground v.1.15,2013-02-23 18:41:00,
2013-02-23 13:42:00,52.9,49.1,29.86,WNW,284,0.0,1.0,87,0.00,,,0.25,Wunderground v.1.15,2013-02-23 18:42:00,
2013-02-23 13:45:00,53.0,48.9,29.86,WNW,284,1.0,2.0,86,0.00,,,0.25,Wunderground v.1.15,2013-02-23 18:45:00,
2013-02-23 13:46:00,53.0,48.9,29.86,WNW,284,1.0,2.0,86,0.00,,,0.25,Wunderground v.1.15,2013-02-23 18:46:00,
2013-02-23 13:48:00,53.0,49.2,29.86,WNW,284,3.0,3.0,87,0.00,,,0.25,Wunderground v.1.15,2013-02-23 18:48:00,
2013-02-23 13:50:00,53.1,49.0,29.86,WNW,284,1.0,1.0,86,0.00,,,0.25,Wunderground v.1.15,2013-02-23 18:50:00,
2013-02-23 13:51:00,53.1,49.0,29.86,WNW,284,1.0,1.0,86,0.00,,,0.25,Wunderground v.1.15,2013-02-23 18:51:00,
2013-02-23 13:53:00,53.1,49.0,29.86,WNW,284,2.0,4.0,86,0.00,,,0.25,Wunderground v.1.15,2013-02-23 18:53:00,
2013-02-23 13:56:00,53.0,48.9,29.86,WNW,284,2.0,4.0,86,0.00,,,0.25,Wunderground v.1.15,2013-02-23 18:56:00,
2013-02-23 13:57:00,53.0,48.9,29.86,WNW,283,2.0,4.0,86,0.00,,,0.25,Wunderground v.1.15,2013-02-23 18:57:00,
2013-02-23 13:58:00,52.9,48.8,29.86,WNW,284,2.0,4.0,86,0.00,,,0.25,Wunderground v.1.15,2013-02-23 18:58:00,
2013-02-23 14:01:00,53.0,48.9,29.86,WNW,283,1.0,2.0,86,0.00,,,0.25,Wunderground v.1.15,2013-02-23 19:01:00,
2013-02-23 14:02:00,53.0,49.2,29.86,WNW,284,1.0,3.0,87,0.00,,,0.25,Wunderground v.1.15,2013-02-23 19:02:00,
2013-02-23 14:03:00,53.0,49.2,29.86,WNW,284,1.0,3.0,87,0.00,,,0.25,Wunderground v.1.15,2013-02-23 19:03:00,
2013-02-23 14:06:00,53.0,48.9,29.86,WNW,284,2.0,3.0,86,0.00,,,0.25,Wunderground v.1.15,2013-02-23 19:06:00,
2013-02-23 14:07:00,53.1,49.3,29.86,WNW,283,1.0,3.0,87,0.00,,,0.25,Wunderground v.1.15,2013-02-23 19:07:00,
2013-02-23 14:08:00,53.1,49.3,29.85,WNW,284,0.0,3.0,87,0.00,,,0.25,Wunderground v.1.15,2013-02-23 19:08:00,
2013-02-23 14:11:00,53.2,49.1,29.86,WNW,284,2.0,3.0,86,0.00,,,0.25,Wunderground v.1.15,2013-02-23 19:11:00,
2013-02-23 14:12:00,53.1,48.7,29.86,WNW,284,2.0,3.0,85,0.00,,,0.25,Wunderground v.1.15,2013-02-23 19:12:00,
2013-02-23 14:13:00,53.1,49.0,29.85,WNW,284,3.0,3.0,86,0.00,,,0.25,Wunderground v.1.15,2013-02-23 19:13:00,
2013-02-23 14:14:00,53.0,48.6,29.85,WNW,284,2.0,3.0,85,0.00,,,0.25,Wunderground v.1.15,2013-02-23 19:14:00,
2013-02-23 14:16:00,52.9,48.5,29.86,WNW,284,0.0,3.0,85,0.00,,,0.25,Wunderground v.1.15,2013-02-23 19:16:00,
2013-02-23 14:17:00,52.8,48.4,29.86,WNW,284,0.0,3.0,85,0.00,,,0.25,Wunderground v.1.15,2013-02-23 19:17:00,
2013-02-23 14:18:00,52.8,48.7,29.85,WNW,283,1.0,3.0,86,0.00,,,0.25,Wunderground v.1.15,2013-02-23 19:18:00,
2013-02-23 14:19:00,52.8,48.7,29.86,WNW,284,0.0,3.0,86,0.00,,,0.25,Wunderground v.1.15,2013-02-23 19:19:00,
2013-02-23 14:21:00,52.8,48.7,29.86,WNW,283,3.0,5.0,86,0.00,,,0.25,Wunderground v.1.15,2013-02-23 19:21:00,
2013-02-23 14:22:00,52.8,48.4,29.86,WNW,283,2.0,5.0,85,0.00,,,0.25,Wunderground v.1.15,2013-02-23 19:22:00,
2013-02-23 14:24:00,52.7,48.3,29.86,WNW,282,1.0,6.0,85,0.00,,,0.25,Wunderground v.1.15,2013-02-23 19:24:00,
2013-02-23 14:26:00,52.6,48.2,29.86,WNW,282,0.0,6.0,85,0.00,,,0.25,Wunderground v.1.15,2013-02-23 19:26:00,
2013-02-23 14:27:00,52.6,48.2,29.86,West,281,0.0,6.0,85,0.00,,,0.25,Wunderground v.1.15,2013-02-23 19:27:00,
2013-02-23 14:29:00,52.6,48.2,29.86,WNW,282,0.0,6.0,85,0.00,,,0.25,Wunderground v.1.15,2013-02-23 19:29:00,
2013-02-23 14:31:00,52.6,48.2,29.86,WNW,282,2.0,2.0,85,0.00,,,0.25,Wunderground v.1.15,2013-02-23 19:31:00,
2013-02-23 14:32:00,52.6,48.5,29.86,WNW,282,0.0,2.0,86,0.00,,,0.25,Wunderground v.1.15,2013-02-23 19:32:00,
2013-02-23 14:35:00,52.6,48.5,29.86,WNW,282,1.0,2.0,86,0.00,,,0.25,Wunderground v.1.15,2013-02-23 19:35:00,
2013-02-23 14:36:00,52.6,48.2,29.86,West,281,0.0,2.0,85,0.00,,,0.25,Wunderground v.1.15,2013-02-23 19:36:00,
2013-02-23 14:37:00,52.6,48.2,29.86,WNW,282,0.0,2.0,85,0.00,,,0.25,Wunderground v.1.15,2013-02-23 19:37:00,
2013-02-23 14:41:00,52.6,48.2,29.86,WNW,282,1.0,2.0,85,0.00,,,0.25,Wunderground v.1.15,2013-02-23 19:41:00,
2013-02-23 14:42:00,52.7,48.3,29.86,West,281,0.0,2.0,85,0.00,,,0.25,Wunderground v.1.15,2013-02-23 19:42:00,
2013-02-23 14:46:00,52.8,48.4,29.85,WNW,282,0.0,2.0,85,0.00,,,0.25,Wunderground v.1.15,2013-02-23 19:46:00,
2013-02-23 14:47:00,52.8,48.4,29.85,West,281,0.0,2.0,85,0.00,,,0.25,Wunderground v.1.15,2013-02-23 19:47:00,
2013-02-23 14:48:00,52.8,48.4,29.85,WNW,282,0.0,2.0,85,0.00,,,0.25,Wunderground v.1.15,2013-02-23 19:48:00,
2013-02-23 14:51:00,53.0,48.6,29.85,WNW,282,2.0,2.0,85,0.00,,,0.25,Wunderground v.1.15,2013-02-23 19:51:00,
2013-02-23 14:52:00,53.0,48.6,29.85,West,281,2.0,3.0,85,0.00,,,0.25,Wunderground v.1.15,2013-02-23 19:52:00,
2013-02-23 14:53:00,53.1,48.7,29.85,WNW,282,1.0,3.0,85,0.00,,,0.25,Wunderground v.1.15,2013-02-23 19:53:00,
2013-02-23 14:56:00,53.1,48.4,29.86,WNW,282,2.0,4.0,84,0.00,,,0.25,Wunderground v.1.15,2013-02-23 19:56:00,
2013-02-23 14:57:00,53.1,48.4,29.86,West,281,4.0,4.0,84,0.00,,,0.25,Wunderground v.1.15,2013-02-23 19:57:00,
2013-02-23 14:58:00,53.2,48.5,29.86,WNW,282,2.0,5.0,84,0.00,,,0.25,Wunderground v.1.15,2013-02-23 19:58:00,
2013-02-23 15:02:00,53.3,48.3,29.85,West,281,0.0,2.0,83,0.00,,,0.25,Wunderground v.1.15,2013-02-23 20:02:00,
2013-02-23 15:03:00,53.4,48.4,29.85,WNW,282,0.0,2.0,83,0.00,,,0.25,Wunderground v.1.15,2013-02-23 20:03:00,
2013-02-23 15:07:00,53.7,48.7,29.85,WNW,282,3.0,5.0,83,0.00,,,0.25,Wunderground v.1.15,2013-02-23 20:07:00,
2013-02-23 15:08:00,53.7,48.3,29.85,West,281,3.0,5.0,82,0.00,,,0.25,Wunderground v.1.15,2013-02-23 20:08:00,
2013-02-23 15:12:00,53.8,48.4,29.85,West,281,3.0,4.0,82,0.00,,,0.25,Wunderground v.1.15,2013-02-23 20:12:00,
2013-02-23 15:13:00,53.8,48.8,29.85,West,281,3.0,4.0,83,0.00,,,0.25,Wunderground v.1.15,2013-02-23 20:13:00,
2013-02-23 15:14:00,53.9,48.5,29.85,West,281,4.0,4.0,82,0.00,,,0.25,Wunderground v.1.15,2013-02-23 20:14:00,
2013-02-23 15:17:00,54.0,49.0,29.85,WNW,282,0.0,5.0,83,0.00,,,0.25,Wunderground v.1.15,2013-02-23 20:17:00,
2013-02-23 15:18:00,54.0,49.0,29.85,West,281,1.0,5.0,83,0.00,,,0.25,Wunderground v.1.15,2013-02-23 20:18:00,
2013-02-23 15:19:00,54.1,49.1,29.85,West,281,2.0,5.0,83,0.00,,,0.25,Wunderground v.1.15,2013-02-23 20:19:00,
2013-02-23 15:22:00,54.3,49.2,29.85,WNW,282,2.0,5.0,83,0.00,,,0.25,Wunderground v.1.15,2013-02-23 20:22:00,
2013-02-23 15:23:00,54.3,49.2,29.86,WNW,282,2.0,5.0,83,0.00,,,0.25,Wunderground v.1.15,2013-02-23 20:23:00,
2013-02-23 15:24:00,54.4,49.3,29.85,West,281,2.0,5.0,83,0.00,,,0.25,Wunderground v.1.15,2013-02-23 20:24:00,
2013-02-23 15:28:00,54.5,49.1,29.85,West,281,3.0,5.0,82,0.00,,,0.25,Wunderground v.1.15,2013-02-23 20:28:00,
2013-02-23 15:29:00,54.5,49.1,29.86,West,281,0.0,5.0,82,0.00,,,0.25,Wunderground v.1.15,2013-02-23 20:29:00,
2013-02-23 15:33:00,54.6,49.2,29.85,West,281,1.0,3.0,82,0.00,,,0.25,Wunderground v.1.15,2013-02-23 20:33:00,
2013-02-23 15:34:00,54.6,49.2,29.85,West,281,2.0,3.0,82,0.00,,,0.25,Wunderground v.1.15,2013-02-23 20:34:00,
2013-02-23 15:35:00,54.6,48.9,29.85,West,281,3.0,4.0,81,0.00,,,0.25,Wunderground v.1.15,2013-02-23 20:35:00,
2013-02-23 15:38:00,54.5,49.1,29.85,West,281,3.0,4.0,82,0.00,,,0.25,Wunderground v.1.15,2013-02-23 20:38:00,
2013-02-23 15:39:00,54.5,49.1,29.85,West,281,2.0,4.0,82,0.00,,,0.25,Wunderground v.1.15,2013-02-23 20:39:00,
2013-02-23 15:41:00,54.4,48.7,29.85,West,281,1.0,3.0,81,0.00,,,0.25,Wunderground v.1.15,2013-02-23 20:41:00,
2013-02-23 15:43:00,54.4,48.7,29.85,West,281,1.0,3.0,81,0.00,,,0.25,Wunderground v.1.15,2013-02-23 20:43:00,
2013-02-23 15:44:00,54.3,48.6,29.85,West,281,2.0,3.0,81,0.00,,,0.25,Wunderground v.1.15,2013-02-23 20:44:00,
2013-02-23 15:45:00,54.3,48.6,29.85,West,281,2.0,4.0,81,0.00,,,0.25,Wunderground v.1.15,2013-02-23 20:45:00,
2013-02-23 15:46:00,54.3,48.9,29.85,West,281,3.0,4.0,82,0.00,,,0.25,Wunderground v.1.15,2013-02-23 20:46:00,
2013-02-23 15:49:00,54.2,48.8,29.85,West,281,1.0,4.0,82,0.00,,,0.25,Wunderground v.1.15,2013-02-23 20:49:00,
2013-02-23 15:50:00,54.2,48.8,29.85,West,281,2.0,2.0,82,0.00,,,0.25,Wunderground v.1.15,2013-02-23 20:50:00,
2013-02-23 15:51:00,54.1,48.4,29.85,West,281,1.0,3.0,81,0.00,,,0.25,Wunderground v.1.15,2013-02-23 20:51:00,
2013-02-23 15:54:00,54.1,48.4,29.85,West,281,1.0,3.0,81,0.00,,,0.25,Wunderground v.1.15,2013-02-23 20:54:00,
2013-02-23 15:56:00,54.1,48.7,29.85,West,281,2.0,3.0,82,0.00,,,0.25,Wunderground v.1.15,2013-02-23 20:56:00,
2013-02-23 15:59:00,54.0,48.6,29.84,West,281,1.0,3.0,82,0.00,,,0.25,Wunderground v.1.15,2013-02-23 20:59:00,
2013-02-23 16:01:00,54.0,48.6,29.84,West,281,0.0,1.0,82,0.00,,,0.25,Wunderground v.1.15,2013-02-23 21:01:00,
2013-02-23 16:02:00,54.0,48.6,29.84,West,281,1.0,1.0,82,0.00,,,0.25,Wunderground v.1.15,2013-02-23 21:02:00,
2013-02-23 16:04:00,54.0,48.6,29.84,West,281,0.0,1.0,82,0.00,,,0.25,Wunderground v.1.15,2013-02-23 21:04:00,
2013-02-23 16:07:00,54.0,49.0,29.84,West,281,0.0,1.0,83,0.00,,,0.25,Wunderground v.1.15,2013-02-23 21:07:00,
2013-02-23 16:09:00,54.0,49.0,29.84,West,281,0.0,1.0,83,0.00,,,0.25,Wunderground v.1.15,2013-02-23 21:09:00,
2013-02-23 16:12:00,54.0,49.0,29.84,West,281,0.0,1.0,83,0.00,,,0.25,Wunderground v.1.15,2013-02-23 21:12:00,
2013-02-23 16:15:00,54.0,48.6,29.84,West,281,1.0,2.0,82,0.00,,,0.25,Wunderground v.1.15,2013-02-23 21:15:00,
2013-02-23 16:17:00,54.0,48.6,29.84,West,281,2.0,2.0,82,0.00,,,0.25,Wunderground v.1.15,2013-02-23 21:17:00,
2013-02-23 16:18:00,53.9,48.5,29.84,West,281,2.0,3.0,82,0.00,,,0.25,Wunderground v.1.15,2013-02-23 21:18:00,
2013-02-23 16:20:00,53.9,48.2,29.84,West,281,1.0,2.0,81,0.00,,,0.25,Wunderground v.1.15,2013-02-23 21:20:00,
2013-02-23 16:22:00,53.9,48.5,29.84,West,281,0.0,2.0,82,0.00,,,0.25,Wunderground v.1.15,2013-02-23 21:22:00,
2013-02-23 16:23:00,53.9,48.5,29.84,West,281,0.0,2.0,82,0.00,,,0.25,Wunderground v.1.15,2013-02-23 21:23:00,
2013-02-23 16:25:00,53.9,48.9,29.84,West,281,0.0,2.0,83,0.00,,,0.25,Wunderground v.1.15,2013-02-23 21:25:00,
2013-02-23 16:26:00,53.9,48.5,29.84,West,281,1.0,2.0,82,0.00,,,0.25,Wunderground v.1.15,2013-02-23 21:26:00,
2013-02-23 16:27:00,53.8,48.8,29.84,West,281,0.0,2.0,83,0.00,,,0.25,Wunderground v.1.15,2013-02-23 21:27:00,
2013-02-23 16:28:00,53.8,48.8,29.84,West,281,0.0,2.0,83,0.00,,,0.25,Wunderground v.1.15,2013-02-23 21:28:00,
2013-02-23 16:31:00,53.8,48.8,29.84,West,281,3.0,3.0,83,0.00,,,0.25,Wunderground v.1.15,2013-02-23 21:31:00,
2013-02-23 16:32:00,53.8,48.4,29.84,West,281,0.0,3.0,82,0.00,,,0.25,Wunderground v.1.15,2013-02-23 21:32:00,
2013-02-23 16:34:00,53.7,48.3,29.84,West,281,0.0,3.0,82,0.00,,,0.25,Wunderground v.1.15,2013-02-23 21:34:00,
2013-02-23 16:36:00,53.7,48.7,29.84,West,281,1.0,3.0,83,0.00,,,0.25,Wunderground v.1.15,2013-02-23 21:36:00,
2013-02-23 16:37:00,53.6,48.6,29.84,West,281,0.0,3.0,83,0.00,,,0.25,Wunderground v.1.15,2013-02-23 21:37:00,
2013-02-23 16:39:00,53.5,48.5,29.84,West,281,2.0,2.0,83,0.00,,,0.25,Wunderground v.1.15,2013-02-23 21:39:00,
2013-02-23 16:41:00,53.5,48.5,29.84,West,281,2.0,2.0,83,0.00,,,0.25,Wunderground v.1.15,2013-02-23 21:41:00,
2013-02-23 16:42:00,53.4,48.4,29.84,West,281,1.0,2.0,83,0.00,,,0.25,Wunderground v.1.15,2013-02-23 21:42:00,
2013-02-23 16:45:00,53.3,48.6,29.84,West,281,1.0,2.0,84,0.00,,,0.25,Wunderground v.1.15,2013-02-23 21:45:00,
2013-02-23 16:46:00,53.3,48.6,29.84,West,281,0.0,2.0,84,0.00,,,0.25,Wunderground v.1.15,2013-02-23 21:46:00,
2013-02-23 16:47:00,53.2,48.5,29.84,West,281,0.0,2.0,84,0.00,,,0.25,Wunderground v.1.15,2013-02-23 21:47:00,
2013-02-23 16:51:00,53.0,48.3,29.84,West,281,1.0,3.0,84,0.00,,,0.25,Wunderground v.1.15,2013-02-23 21:51:00,
2013-02-23 16:52:00,53.0,48.3,29.84,West,281,0.0,3.0,84,0.00,,,0.25,Wunderground v.1.15,2013-02-23 21:52:00,
2013-02-23 16:56:00,52.9,48.2,29.84,West,281,0.0,3.0,84,0.00,,,0.25,Wunderground v.1.15,2013-02-23 21:56:00,
2013-02-23 16:58:00,52.9,48.2,29.84,West,281,0.0,3.0,84,0.00,,,0.25,Wunderground v.1.15,2013-02-23 21:58:00,
2013-02-23 17:01:00,52.8,48.4,29.83,West,281,0.0,0.0,85,0.00,,,0.25,Wunderground v.1.15,2013-02-23 22:01:00,
2013-02-23 17:03:00,52.8,48.4,29.83,West,281,0.0,0.0,85,0.00,,,0.25,Wunderground v.1.15,2013-02-23 22:03:00,
2013-02-23 17:07:00,52.7,48.3,29.83,West,281,0.0,0.0,85,0.00,,,0.25,Wunderground v.1.15,2013-02-23 22:07:00,
2013-02-23 17:08:00,52.6,48.2,29.83,West,281,0.0,0.0,85,0.00,,,0.25,Wunderground v.1.15,2013-02-23 22:08:00,
2013-02-23 17:12:00,52.6,48.2,29.83,West,281,0.0,1.0,85,0.00,,,0.25,Wunderground v.1.15,2013-02-23 22:12:00,
2013-02-23 17:14:00,52.5,48.1,29.83,West,281,0.0,1.0,85,0.00,,,0.25,Wunderground v.1.15,2013-02-23 22:14:00,
2013-02-23 17:17:00,52.5,48.1,29.83,West,281,0.0,1.0,85,0.00,,,0.25,Wunderground v.1.15,2013-02-23 22:17:00,
2013-02-23 17:19:00,52.4,48.0,29.83,West,281,0.0,1.0,85,0.00,,,0.25,Wunderground v.1.15,2013-02-23 22:19:00,
2013-02-23 17:22:00,52.4,48.0,29.82,West,281,0.0,0.0,85,0.00,,,0.25,Wunderground v.1.15,2013-02-23 22:22:00,
2013-02-23 17:24:00,52.4,48.3,29.83,West,281,0.0,0.0,86,0.00,,,0.25,Wunderground v.1.15,2013-02-23 22:24:00,
2013-02-23 17:27:00,52.2,48.1,29.83,West,281,0.0,0.0,86,0.00,,,0.25,Wunderground v.1.15,2013-02-23 22:27:00,
2013-02-23 17:29:00,52.2,48.1,29.83,West,281,0.0,0.0,86,0.00,,,0.25,Wunderground v.1.15,2013-02-23 22:29:00,
2013-02-23 17:30:00,52.2,48.1,29.83,West,281,0.0,0.0,86,0.00,,,0.25,Wunderground v.1.15,2013-02-23 22:30:00,
2013-02-23 17:32:00,52.1,48.0,29.83,West,281,0.0,0.0,86,0.00,,,0.25,Wunderground v.1.15,2013-02-23 22:32:00,
2013-02-23 17:34:00,52.0,47.9,29.83,West,281,0.0,0.0,86,0.00,,,0.25,Wunderground v.1.15,2013-02-23 22:34:00,
2013-02-23 17:35:00,51.9,48.2,29.83,West,281,0.0,0.0,87,0.00,,,0.25,Wunderground v.1.15,2013-02-23 22:35:00,
2013-02-23 17:37:00,51.8,48.1,29.83,West,281,0.0,0.0,87,0.00,,,0.25,Wunderground v.1.15,2013-02-23 22:37:00,
2013-02-23 17:39:00,51.8,48.1,29.82,West,281,0.0,0.0,87,0.00,,,0.25,Wunderground v.1.15,2013-02-23 22:39:00,
2013-02-23 17:41:00,51.7,48.0,29.82,West,281,0.0,0.0,87,0.00,,,0.25,Wunderground v.1.15,2013-02-23 22:41:00,
2013-02-23 17:42:00,51.7,48.0,29.82,West,281,0.0,0.0,87,0.00,,,0.25,Wunderground v.1.15,2013-02-23 22:42:00,
2013-02-23 17:43:00,51.7,48.0,29.82,West,281,0.0,0.0,87,0.00,,,0.25,Wunderground v.1.15,2013-02-23 22:43:00,
2013-02-23 17:45:00,51.6,47.9,29.82,West,281,0.0,0.0,87,0.00,,,0.25,Wunderground v.1.15,2013-02-23 22:45:00,
2013-02-23 17:46:00,51.5,47.8,29.81,West,281,0.0,0.0,87,0.00,,,0.25,Wunderground v.1.15,2013-02-23 22:46:00,
2013-02-23 17:47:00,51.5,47.8,29.81,West,281,0.0,0.0,87,0.00,,,0.25,Wunderground v.1.15,2013-02-23 22:47:00,
2013-02-23 17:48:00,51.5,47.8,29.81,West,281,0.0,0.0,87,0.00,,,0.25,Wunderground v.1.15,2013-02-23 22:48:00,
2013-02-23 17:50:00,51.4,48.0,29.81,West,281,0.0,0.0,88,0.00,,,0.25,Wunderground v.1.15,2013-02-23 22:50:00,
2013-02-23 17:52:00,51.3,47.6,29.81,West,281,0.0,0.0,87,0.00,,,0.25,Wunderground v.1.15,2013-02-23 22:52:00,
2013-02-23 17:53:00,51.3,47.6,29.81,West,281,0.0,0.0,87,0.00,,,0.25,Wunderground v.1.15,2013-02-23 22:53:00,
2013-02-23 17:55:00,51.2,47.8,29.81,West,281,0.0,0.0,88,0.00,,,0.25,Wunderground v.1.15,2013-02-23 22:55:00,
2013-02-23 17:57:00,51.2,47.8,29.81,West,281,0.0,0.0,88,0.00,,,0.25,Wunderground v.1.15,2013-02-23 22:57:00,
2013-02-23 17:58:00,51.2,47.8,29.81,West,281,0.0,0.0,88,0.00,,,0.25,Wunderground v.1.15,2013-02-23 22:58:00,
2013-02-23 18:00:00,51.1,47.7,29.81,West,281,0.0,0.0,88,0.00,,,0.25,Wunderground v.1.15,2013-02-23 23:00:00,
2013-02-23 18:03:00,51.0,47.6,29.80,West,281,0.0,0.0,88,0.00,,,0.25,Wunderground v.1.15,2013-02-23 23:03:00,
2013-02-23 18:04:00,51.0,47.6,29.80,West,281,0.0,0.0,88,0.00,,,0.25,Wunderground v.1.15,2013-02-23 23:04:00,
2013-02-23 18:05:00,51.0,47.6,29.81,West,281,0.0,0.0,88,0.00,,,0.25,Wunderground v.1.15,2013-02-23 23:05:00,
2013-02-23 18:08:00,50.9,47.5,29.81,West,281,0.0,0.0,88,0.00,,,0.25,Wunderground v.1.15,2013-02-23 23:08:00,
2013-02-23 18:09:00,50.9,47.5,29.81,West,281,0.0,0.0,88,0.00,,,0.25,Wunderground v.1.15,2013-02-23 23:09:00,
2013-02-23 18:11:00,50.9,47.5,29.81,West,281,0.0,0.0,88,0.00,,,0.25,Wunderground v.1.15,2013-02-23 23:11:00,
2013-02-23 18:13:00,50.9,47.8,29.81,West,281,0.0,1.0,89,0.00,,,0.25,Wunderground v.1.15,2013-02-23 23:13:00,
2013-02-23 18:15:00,50.8,47.7,29.81,West,281,0.0,1.0,89,0.00,,,0.25,Wunderground v.1.15,2013-02-23 23:15:00,
2013-02-23 18:16:00,50.8,47.7,29.81,West,281,0.0,1.0,89,0.00,,,0.25,Wunderground v.1.15,2013-02-23 23:16:00,
2013-02-23 18:18:00,50.8,47.7,29.81,West,281,0.0,1.0,89,0.00,,,0.25,Wunderground v.1.15,2013-02-23 23:18:00,
2013-02-23 18:20:00,50.8,48.0,29.81,West,281,0.0,0.0,90,0.00,,,0.25,Wunderground v.1.15,2013-02-23 23:20:00,
2013-02-23 18:21:00,50.7,47.6,29.81,West,281,0.0,0.0,89,0.00,,,0.25,Wunderground v.1.15,2013-02-23 23:21:00,
2013-02-23 18:23:00,50.7,47.6,29.81,West,281,0.0,0.0,89,0.00,,,0.25,Wunderground v.1.15,2013-02-23 23:23:00,
2013-02-23 18:25:00,50.6,47.5,29.81,West,281,0.0,0.0,89,0.00,,,0.25,Wunderground v.1.15,2013-02-23 23:25:00,
2013-02-23 18:27:00,50.5,47.4,29.81,West,281,0.0,0.0,89,0.00,,,0.25,Wunderground v.1.15,2013-02-23 23:27:00,
2013-02-23 18:29:00,50.5,47.4,29.81,West,281,0.0,0.0,89,0.00,,,0.25,Wunderground v.1.15,2013-02-23 23:29:00,
2013-02-23 18:30:00,50.5,47.4,29.81,West,281,0.0,0.0,89,0.00,,,0.25,Wunderground v.1.15,2013-02-23 23:30:00,
2013-02-23 18:32:00,50.4,47.3,29.81,West,281,0.0,0.0,89,0.00,,,0.25,Wunderground v.1.15,2013-02-23 23:32:00,
2013-02-23 18:34:00,50.3,47.2,29.81,West,281,0.0,0.0,89,0.00,,,0.25,Wunderground v.1.15,2013-02-23 23:34:00,
2013-02-23 18:35:00,50.3,47.2,29.81,West,281,0.0,0.0,89,0.00,,,0.25,Wunderground v.1.15,2013-02-23 23:35:00,
2013-02-23 18:37:00,50.2,47.4,29.81,West,281,0.0,0.0,90,0.00,,,0.25,Wunderground v.1.15,2013-02-23 23:37:00,
2013-02-23 18:39:00,50.1,47.3,29.82,West,281,0.0,0.0,90,0.00,,,0.25,Wunderground v.1.15,2013-02-23 23:39:00,
2013-02-23 18:40:00,50.1,47.3,29.82,West,281,0.0,0.0,90,0.00,,,0.25,Wunderground v.1.15,2013-02-23 23:40:00,
2013-02-23 18:43:00,50.1,47.6,29.82,West,281,0.0,0.0,91,0.00,,,0.25,Wunderground v.1.15,2013-02-23 23:43:00,
2013-02-23 18:44:00,50.0,47.5,29.82,West,281,0.0,0.0,91,0.00,,,0.25,Wunderground v.1.15,2013-02-23 23:44:00,
2013-02-23 18:45:00,50.0,47.5,29.82,West,281,0.0,0.0,91,0.00,,,0.25,Wunderground v.1.15,2013-02-23 23:45:00,
2013-02-23 18:48:00,49.9,47.4,29.82,West,281,0.0,0.0,91,0.00,,,0.25,Wunderground v.1.15,2013-02-23 23:48:00,
2013-02-23 18:49:00,49.8,47.3,29.82,West,281,0.0,0.0,91,0.00,,,0.25,Wunderground v.1.15,2013-02-23 23:49:00,
2013-02-23 18:50:00,49.8,47.3,29.82,West,281,0.0,0.0,91,0.00,,,0.25,Wunderground v.1.15,2013-02-23 23:50:00,
2013-02-23 18:51:00,49.8,47.3,29.82,West,281,0.0,0.0,91,0.00,,,0.25,Wunderground v.1.15,2013-02-23 23:51:00,
2013-02-23 18:53:00,49.8,47.3,29.83,West,281,0.0,1.0,91,0.00,,,0.25,Wunderground v.1.15,2013-02-23 23:53:00,
2013-02-23 18:54:00,49.7,47.2,29.83,West,281,0.0,1.0,91,0.00,,,0.25,Wunderground v.1.15,2013-02-23 23:54:00,
2013-02-23 18:56:00,49.7,47.2,29.83,West,281,0.0,1.0,91,0.00,,,0.25,Wunderground v.1.15,2013-02-23 23:56:00,
2013-02-23 18:58:00,49.7,47.2,29.82,West,281,0.0,1.0,91,0.00,,,0.25,Wunderground v.1.15,2013-02-23 23:58:00,
2013-02-23 18:59:00,49.6,47.1,29.82,West,281,0.0,1.0,91,0.00,,,0.25,Wunderground v.1.15,2013-02-23 23:59:00,
2013-02-23 19:01:00,49.6,47.1,29.82,West,281,0.0,0.0,91,0.00,,,0.25,Wunderground v.1.15,2013-02-24 00:01:00,
2013-02-23 19:03:00,49.5,47.0,29.82,West,281,0.0,0.0,91,0.00,,,0.25,Wunderground v.1.15,2013-02-24 00:03:00,
2013-02-23 19:05:00,49.4,46.9,29.82,West,281,0.0,0.0,91,0.00,,,0.25,Wunderground v.1.15,2013-02-24 00:05:00,
2013-02-23 19:06:00,49.3,46.8,29.83,West,281,0.0,0.0,91,0.00,,,0.25,Wunderground v.1.15,2013-02-24 00:06:00,
2013-02-23 19:08:00,49.2,46.7,29.83,West,281,1.0,1.0,91,0.00,,,0.25,Wunderground v.1.15,2013-02-24 00:08:00,
2013-02-23 19:10:00,49.2,46.7,29.83,West,281,0.0,0.0,91,0.00,,,0.25,Wunderground v.1.15,2013-02-24 00:10:00,
2013-02-23 19:11:00,49.2,47.0,29.83,West,281,0.0,0.0,92,0.00,,,0.25,Wunderground v.1.15,2013-02-24 00:11:00,
2013-02-23 19:13:00,49.2,47.0,29.83,West,281,0.0,0.0,92,0.00,,,0.25,Wunderground v.1.15,2013-02-24 00:13:00,
2013-02-23 19:15:00,49.1,46.9,29.83,West,281,0.0,0.0,92,0.00,,,0.25,Wunderground v.1.15,2013-02-24 00:15:00,
2013-02-23 19:16:00,49.0,46.8,29.83,West,281,0.0,0.0,92,0.00,,,0.25,Wunderground v.1.15,2013-02-24 00:16:00,
2013-02-23 19:17:00,49.0,46.8,29.83,West,281,0.0,0.0,92,0.00,,,0.25,Wunderground v.1.15,2013-02-24 00:17:00,
2013-02-23 19:18:00,49.0,46.8,29.83,West,281,0.0,0.0,92,0.00,,,0.25,Wunderground v.1.15,2013-02-24 00:18:00,
2013-02-23 19:20:00,48.9,46.7,29.84,West,281,0.0,0.0,92,0.00,,,0.25,Wunderground v.1.15,2013-02-24 00:20:00,
2013-02-23 19:22:00,48.8,46.6,29.83,West,281,0.0,0.0,92,0.00,,,0.25,Wunderground v.1.15,2013-02-24 00:22:00,
2013-02-23 19:23:00,48.8,46.9,29.83,West,281,0.0,0.0,93,0.00,,,0.25,Wunderground v.1.15,2013-02-24 00:23:00,
2013-02-23 19:26:00,48.9,47.0,29.83,West,281,0.0,1.0,93,0.00,,,0.25,Wunderground v.1.15,2013-02-24 00:26:00,
2013-02-23 19:27:00,48.9,47.0,29.84,West,281,0.0,1.0,93,0.00,,,0.25,Wunderground v.1.15,2013-02-24 00:27:00,
2013-02-23 19:28:00,48.8,46.9,29.84,West,281,0.0,1.0,93,0.00,,,0.25,Wunderground v.1.15,2013-02-24 00:28:00,
2013-02-23 19:31:00,48.8,46.9,29.84,West,281,0.0,0.0,93,0.00,,,0.25,Wunderground v.1.15,2013-02-24 00:31:00,
2013-02-23 19:32:00,48.8,46.9,29.84,West,281,0.0,0.0,93,0.00,,,0.25,Wunderground v.1.15,2013-02-24 00:32:00,
2013-02-23 19:33:00,48.7,46.8,29.84,West,281,0.0,0.0,93,0.00,,,0.25,Wunderground v.1.15,2013-02-24 00:33:00,
2013-02-23 19:36:00,48.7,46.8,29.84,West,281,0.0,0.0,93,0.00,,,0.25,Wunderground v.1.15,2013-02-24 00:36:00,
2013-02-23 19:37:00,48.7,46.8,29.84,West,281,0.0,0.0,93,0.00,,,0.25,Wunderground v.1.15,2013-02-24 00:37:00,
2013-02-23 19:39:00,48.7,46.8,29.83,West,281,0.0,0.0,93,0.00,,,0.25,Wunderground v.1.15,2013-02-24 00:39:00,
2013-02-23 19:41:00,48.6,46.7,29.83,West,281,0.0,0.0,93,0.00,,,0.25,Wunderground v.1.15,2013-02-24 00:41:00,
2013-02-23 19:42:00,48.6,47.0,29.83,West,281,0.0,0.0,94,0.00,,,0.25,Wunderground v.1.15,2013-02-24 00:42:00,
2013-02-23 19:44:00,48.6,47.0,29.83,West,281,0.0,0.0,94,0.00,,,0.25,Wunderground v.1.15,2013-02-24 00:44:00,
2013-02-23 19:45:00,48.6,47.0,29.83,West,281,0.0,1.0,94,0.00,,,0.25,Wunderground v.1.15,2013-02-24 00:45:00,
2013-02-23 19:46:00,48.6,47.0,29.83,West,281,1.0,2.0,94,0.00,,,0.25,Wunderground v.1.15,2013-02-24 00:46:00,
2013-02-23 19:47:00,48.6,47.0,29.83,West,281,2.0,2.0,94,0.00,,,0.25,Wunderground v.1.15,2013-02-24 00:47:00,
2013-02-23 19:49:00,48.5,46.9,29.83,West,281,1.0,2.0,94,0.00,,,0.25,Wunderground v.1.15,2013-02-24 00:49:00,
2013-02-23 19:50:00,48.4,46.5,29.83,West,281,1.0,2.0,93,0.00,,,0.25,Wunderground v.1.15,2013-02-24 00:50:00,
2013-02-23 19:51:00,48.4,46.5,29.83,West,281,1.0,2.0,93,0.00,,,0.25,Wunderground v.1.15,2013-02-24 00:51:00,
2013-02-23 19:52:00,48.3,46.4,29.83,West,281,1.0,2.0,93,0.00,,,0.25,Wunderground v.1.15,2013-02-24 00:52:00,
2013-02-23 19:54:00,48.3,46.4,29.83,West,281,2.0,2.0,93,0.00,,,0.25,Wunderground v.1.15,2013-02-24 00:54:00,
2013-02-23 19:55:00,48.2,47.7,29.84,West,281,2.0,2.0,98,0.00,,,0.25,Wunderground v.1.15,2013-02-24 00:55:00,
2013-02-23 19:57:00,48.2,46.3,29.84,West,281,2.0,3.0,93,0.00,,,0.25,Wunderground v.1.15,2013-02-24 00:57:00,
2013-02-23 19:59:00,48.1,46.2,29.83,West,281,1.0,3.0,93,0.00,,,0.25,Wunderground v.1.15,2013-02-24 00:59:00,
2013-02-23 20:00:00,48.1,46.2,29.83,West,281,1.0,1.0,93,0.00,,,0.25,Wunderground v.1.15,2013-02-24 01:00:00,
2013-02-23 20:02:00,48.0,46.1,29.83,West,281,1.0,2.0,93,0.00,,,0.25,Wunderground v.1.15,2013-02-24 01:02:00,
2013-02-23 20:04:00,47.9,46.3,29.83,West,281,1.0,2.0,94,0.00,,,0.25,Wunderground v.1.15,2013-02-24 01:04:00,
2013-02-23 20:06:00,47.9,46.3,29.83,West,281,1.0,2.0,94,0.00,,,0.25,Wunderground v.1.15,2013-02-24 01:06:00,
2013-02-23 20:07:00,47.9,46.3,29.83,West,281,1.0,2.0,94,0.00,,,0.25,Wunderground v.1.15,2013-02-24 01:07:00,
2013-02-23 20:08:00,47.9,46.3,29.83,West,281,1.0,2.0,94,0.00,,,0.25,Wunderground v.1.15,2013-02-24 01:08:00,
2013-02-23 20:09:00,47.9,46.3,29.83,West,281,0.0,2.0,94,0.00,,,0.25,Wunderground v.1.15,2013-02-24 01:09:00,
2013-02-23 20:11:00,48.0,46.4,29.83,West,281,0.0,1.0,94,0.00,,,0.25,Wunderground v.1.15,2013-02-24 01:11:00,
2013-02-23 20:12:00,48.0,46.4,29.83,West,281,0.0,1.0,94,0.00,,,0.25,Wunderground v.1.15,2013-02-24 01:12:00,
2013-02-23 20:13:00,48.0,46.4,29.83,West,281,0.0,1.0,94,0.00,,,0.25,Wunderground v.1.15,2013-02-24 01:13:00,
2013-02-23 20:14:00,48.0,46.4,29.83,West,281,0.0,1.0,94,0.00,,,0.25,Wunderground v.1.15,2013-02-24 01:14:00,
2013-02-23 20:16:00,47.9,46.3,29.83,West,281,0.0,1.0,94,0.00,,,0.25,Wunderground v.1.15,2013-02-24 01:16:00,
2013-02-23 20:18:00,47.8,45.9,29.84,West,281,0.0,1.0,93,0.00,,,0.25,Wunderground v.1.15,2013-02-24 01:18:00,
2013-02-23 20:20:00,47.6,45.7,29.84,West,281,0.0,0.0,93,0.00,,,0.25,Wunderground v.1.15,2013-02-24 01:20:00,
2013-02-23 20:21:00,47.4,45.5,29.84,West,281,0.0,0.0,93,0.00,,,0.25,Wunderground v.1.15,2013-02-24 01:21:00,
2013-02-23 20:23:00,47.2,45.3,29.84,West,281,0.0,0.0,93,0.00,,,0.25,Wunderground v.1.15,2013-02-24 01:23:00,
2013-02-23 20:24:00,47.2,45.3,29.84,West,281,0.0,0.0,93,0.00,,,0.25,Wunderground v.1.15,2013-02-24 01:24:00,
2013-02-23 20:25:00,47.1,45.2,29.84,West,281,0.0,0.0,93,0.00,,,0.25,Wunderground v.1.15,2013-02-24 01:25:00,
2013-02-23 20:27:00,46.9,45.0,29.84,West,281,0.0,0.0,93,0.00,,,0.25,Wunderground v.1.15,2013-02-24 01:27:00,
2013-02-23 20:29:00,46.8,44.9,29.84,West,281,0.0,0.0,93,0.00,,,0.25,Wunderground v.1.15,2013-02-24 01:29:00,
2013-02-23 20:30:00,46.8,44.9,29.84,West,281,0.0,0.0,93,0.00,,,0.25,Wunderground v.1.15,2013-02-24 01:30:00,
2013-02-23 20:32:00,46.7,44.8,29.84,West,281,0.0,1.0,93,0.00,,,0.25,Wunderground v.1.15,2013-02-24 01:32:00,
2013-02-23 20:34:00,46.6,44.7,29.85,West,281,0.0,1.0,93,0.00,,,0.25,Wunderground v.1.15,2013-02-24 01:34:00,
2013-02-23 20:35:00,46.5,44.9,29.85,West,281,0.0,1.0,94,0.00,,,0.25,Wunderground v.1.15,2013-02-24 01:35:00,
2013-02-23 20:37:00,46.5,44.9,29.85,West,281,0.0,1.0,94,0.00,,,0.25,Wunderground v.1.15,2013-02-24 01:37:00,
2013-02-23 20:39:00,46.5,44.9,29.85,West,281,0.0,1.0,94,0.00,,,0.25,Wunderground v.1.15,2013-02-24 01:39:00,
2013-02-23 20:40:00,46.5,44.9,29.85,West,281,0.0,0.0,94,0.00,,,0.25,Wunderground v.1.15,2013-02-24 01:40:00,
2013-02-23 20:43:00,46.5,44.9,29.85,West,281,0.0,0.0,94,0.00,,,0.25,Wunderground v.1.15,2013-02-24 01:43:00,
2013-02-23 20:44:00,46.4,44.8,29.85,West,281,0.0,0.0,94,0.00,,,0.25,Wunderground v.1.15,2013-02-24 01:44:00,
2013-02-23 20:45:00,46.4,44.8,29.85,West,281,0.0,0.0,94,0.00,,,0.25,Wunderground v.1.15,2013-02-24 01:45:00,
2013-02-23 20:48:00,46.4,44.8,29.85,West,281,0.0,0.0,94,0.00,,,0.25,Wunderground v.1.15,2013-02-24 01:48:00,
2013-02-23 20:49:00,46.4,44.8,29.85,West,281,1.0,2.0,94,0.00,,,0.25,Wunderground v.1.15,2013-02-24 01:49:00,
2013-02-23 20:50:00,46.4,45.0,29.85,West,281,1.0,1.0,95,0.00,,,0.25,Wunderground v.1.15,2013-02-24 01:50:00,
2013-02-23 20:53:00,46.4,45.0,29.86,West,281,0.0,1.0,95,0.00,,,0.25,Wunderground v.1.15,2013-02-24 01:53:00,
2013-02-23 20:54:00,46.5,45.1,29.86,West,281,0.0,1.0,95,0.00,,,0.25,Wunderground v.1.15,2013-02-24 01:54:00,
2013-02-23 20:55:00,46.5,45.1,29.86,West,281,0.0,1.0,95,0.00,,,0.25,Wunderground v.1.15,2013-02-24 01:55:00,
2013-02-23 20:56:00,46.5,45.1,29.86,West,281,0.0,1.0,95,0.00,,,0.25,Wunderground v.1.15,2013-02-24 01:56:00,
2013-02-23 20:58:00,46.6,45.2,29.86,West,281,0.0,1.0,95,0.00,,,0.25,Wunderground v.1.15,2013-02-24 01:58:00,
2013-02-23 20:59:00,46.6,45.2,29.86,West,281,0.0,0.0,95,0.00,,,0.25,Wunderground v.1.15,2013-02-24 01:59:00,
2013-02-23 21:00:00,46.6,45.2,29.87,West,281,0.0,0.0,95,0.00,,,0.25,Wunderground v.1.15,2013-02-24 02:00:00,
2013-02-23 21:01:00,46.6,45.2,29.87,West,281,0.0,0.0,95,0.00,,,0.25,Wunderground v.1.15,2013-02-24 02:01:00,
2013-02-23 21:03:00,46.7,45.3,29.87,West,281,0.0,1.0,95,0.00,,,0.25,Wunderground v.1.15,2013-02-24 02:03:00,
2013-02-23 21:05:00,46.7,45.3,29.87,West,281,0.0,1.0,95,0.00,,,0.25,Wunderground v.1.15,2013-02-24 02:05:00,
2013-02-23 21:06:00,46.7,45.3,29.87,West,281,0.0,1.0,95,0.00,,,0.25,Wunderground v.1.15,2013-02-24 02:06:00,
2013-02-23 21:09:00,46.7,45.3,29.87,West,281,0.0,1.0,95,0.00,,,0.25,Wunderground v.1.15,2013-02-24 02:09:00,
2013-02-23 21:10:00,46.7,45.3,29.87,West,281,0.0,0.0,95,0.00,,,0.25,Wunderground v.1.15,2013-02-24 02:10:00,
2013-02-23 21:11:00,46.7,45.3,29.87,West,281,0.0,0.0,95,0.00,,,0.25,Wunderground v.1.15,2013-02-24 02:11:00,
2013-02-23 21:14:00,46.5,45.1,29.87,West,281,0.0,0.0,95,0.00,,,0.25,Wunderground v.1.15,2013-02-24 02:14:00,
2013-02-23 21:15:00,46.5,45.1,29.87,West,281,0.0,0.0,95,0.00,,,0.25,Wunderground v.1.15,2013-02-24 02:15:00,
2013-02-23 21:16:00,46.5,45.1,29.87,West,281,0.0,0.0,95,0.00,,,0.25,Wunderground v.1.15,2013-02-24 02:16:00,
2013-02-23 21:17:00,46.4,45.0,29.87,West,281,0.0,0.0,95,0.00,,,0.25,Wunderground v.1.15,2013-02-24 02:17:00,
2013-02-23 21:20:00,46.3,44.9,29.87,West,281,0.0,0.0,95,0.00,,,0.25,Wunderground v.1.15,2013-02-24 02:20:00,
2013-02-23 21:21:00,46.3,44.9,29.87,West,281,0.0,0.0,95,0.00,,,0.25,Wunderground v.1.15,2013-02-24 02:21:00,
2013-02-23 21:22:00,46.3,44.9,29.87,West,281,0.0,0.0,95,0.00,,,0.25,Wunderground v.1.15,2013-02-24 02:22:00,
2013-02-23 21:25:00,46.2,44.8,29.87,West,281,0.0,0.0,95,0.00,,,0.25,Wunderground v.1.15,2013-02-24 02:25:00,
2013-02-23 21:26:00,46.2,44.8,29.87,West,281,0.0,0.0,95,0.00,,,0.25,Wunderground v.1.15,2013-02-24 02:26:00,
2013-02-23 21:27:00,46.2,44.8,29.87,West,281,0.0,0.0,95,0.00,,,0.25,Wunderground v.1.15,2013-02-24 02:27:00,
2013-02-23 21:30:00,46.1,44.7,29.87,West,281,0.0,0.0,95,0.00,,,0.25,Wunderground v.1.15,2013-02-24 02:30:00,
2013-02-23 21:31:00,46.1,44.7,29.88,West,281,0.0,0.0,95,0.00,,,0.25,Wunderground v.1.15,2013-02-24 02:31:00,
2013-02-23 21:32:00,46.1,44.7,29.88,West,281,0.0,0.0,95,0.00,,,0.25,Wunderground v.1.15,2013-02-24 02:32:00,
2013-02-23 21:36:00,46.2,44.8,29.88,West,281,0.0,0.0,95,0.00,,,0.25,Wunderground v.1.15,2013-02-24 02:36:00,
2013-02-23 21:37:00,46.2,44.8,29.88,West,281,0.0,1.0,95,0.00,,,0.25,Wunderground v.1.15,2013-02-24 02:37:00,
2013-02-23 21:38:00,46.2,44.8,29.88,West,281,0.0,1.0,95,0.00,,,0.25,Wunderground v.1.15,2013-02-24 02:38:00,
2013-02-23 21:41:00,46.3,44.9,29.89,West,281,1.0,1.0,95,0.00,,,0.25,Wunderground v.1.15,2013-02-24 02:41:00,
2013-02-23 21:42:00,46.3,44.9,29.88,West,281,1.0,2.0,95,0.00,,,0.25,Wunderground v.1.15,2013-02-24 02:42:00,
2013-02-23 21:43:00,46.3,44.9,29.88,West,281,1.0,2.0,95,0.00,,,0.25,Wunderground v.1.15,2013-02-24 02:43:00,
2013-02-23 21:46:00,46.3,44.9,29.89,West,281,0.0,2.0,95,0.00,,,0.25,Wunderground v.1.15,2013-02-24 02:46:00,
2013-02-23 21:47:00,46.3,45.2,29.89,West,281,0.0,2.0,96,0.00,,,0.25,Wunderground v.1.15,2013-02-24 02:47:00,
2013-02-23 21:49:00,46.3,45.2,29.89,West,281,1.0,2.0,96,0.00,,,0.25,Wunderground v.1.15,2013-02-24 02:49:00,
2013-02-23 21:51:00,46.4,45.3,29.89,West,281,0.0,1.0,96,0.00,,,0.25,Wunderground v.1.15,2013-02-24 02:51:00,
2013-02-23 21:52:00,46.4,45.3,29.89,West,281,0.0,1.0,96,0.00,,,0.25,Wunderground v.1.15,2013-02-24 02:52:00,
2013-02-23 21:53:00,46.4,45.3,29.89,West,281,0.0,1.0,96,0.00,,,0.25,Wunderground v.1.15,2013-02-24 02:53:00,
2013-02-23 21:54:00,46.4,45.3,29.89,West,281,0.0,1.0,96,0.00,,,0.25,Wunderground v.1.15,2013-02-24 02:54:00,
2013-02-23 21:56:00,46.3,45.2,29.89,West,281,0.0,1.0,96,0.00,,,0.25,Wunderground v.1.15,2013-02-24 02:56:00,
2013-02-23 21:57:00,46.3,45.2,29.89,West,281,0.0,1.0,96,0.00,,,0.25,Wunderground v.1.15,2013-02-24 02:57:00,
2013-02-23 21:58:00,46.3,44.9,29.89,West,281,0.0,1.0,95,0.00,,,0.25,Wunderground v.1.15,2013-02-24 02:58:00,
2013-02-23 21:59:00,46.3,44.9,29.90,West,281,0.0,0.0,95,0.00,,,0.25,Wunderground v.1.15,2013-02-24 02:59:00,
2013-02-23 22:02:00,46.3,44.9,29.90,West,281,0.0,1.0,95,0.00,,,0.25,Wunderground v.1.15,2013-02-24 03:02:00,
2013-02-23 22:04:00,46.3,45.2,29.90,West,281,0.0,1.0,96,0.00,,,0.25,Wunderground v.1.15,2013-02-24 03:04:00,
2013-02-23 22:05:00,46.3,45.2,29.90,West,281,0.0,1.0,96,0.00,,,0.25,Wunderground v.1.15,2013-02-24 03:05:00,
2013-02-23 22:07:00,46.3,45.2,29.90,West,281,0.0,1.0,96,0.00,,,0.25,Wunderground v.1.15,2013-02-24 03:07:00,
2013-02-23 22:09:00,46.3,45.2,29.90,West,281,0.0,3.0,96,0.00,,,0.25,Wunderground v.1.15,2013-02-24 03:09:00,
2013-02-23 22:10:00,46.3,45.2,29.90,West,281,0.0,0.0,96,0.00,,,0.25,Wunderground v.1.15,2013-02-24 03:10:00,
2013-02-23 22:12:00,46.3,45.2,29.89,West,281,0.0,1.0,96,0.00,,,0.25,Wunderground v.1.15,2013-02-24 03:12:00,
2013-02-23 22:13:00,46.2,45.1,29.89,West,281,1.0,1.0,96,0.00,,,0.25,Wunderground v.1.15,2013-02-24 03:13:00,
2013-02-23 22:14:00,46.2,45.1,29.90,West,281,1.0,1.0,96,0.00,,,0.25,Wunderground v.1.15,2013-02-24 03:14:00,
2013-02-23 22:15:00,46.2,45.1,29.90,West,281,1.0,2.0,96,0.00,,,0.25,Wunderground v.1.15,2013-02-24 03:15:00,
2013-02-23 22:17:00,46.3,45.2,29.90,West,281,2.0,2.0,96,0.00,,,0.25,Wunderground v.1.15,2013-02-24 03:17:00,
2013-02-23 22:18:00,46.3,45.2,29.90,West,281,1.0,2.0,96,0.00,,,0.25,Wunderground v.1.15,2013-02-24 03:18:00,
2013-02-23 22:19:00,46.4,45.3,29.89,West,281,0.0,2.0,96,0.00,,,0.25,Wunderground v.1.15,2013-02-24 03:19:00,
2013-02-23 22:20:00,46.5,45.4,29.89,West,281,0.0,0.0,96,0.00,,,0.25,Wunderground v.1.15,2013-02-24 03:20:00,
2013-02-23 22:22:00,46.5,45.4,29.89,West,281,1.0,2.0,96,0.00,,,0.25,Wunderground v.1.15,2013-02-24 03:22:00,
2013-02-23 22:23:00,46.5,45.4,29.89,West,281,2.0,2.0,96,0.00,,,0.25,Wunderground v.1.15,2013-02-24 03:23:00,
2013-02-23 22:25:00,46.7,45.6,29.89,West,281,0.0,2.0,96,0.00,,,0.25,Wunderground v.1.15,2013-02-24 03:25:00,
2013-02-23 22:27:00,46.6,45.5,29.89,West,281,0.0,2.0,96,0.00,,,0.25,Wunderground v.1.15,2013-02-24 03:27:00,
2013-02-23 22:28:00,46.7,45.6,29.89,West,281,0.0,2.0,96,0.00,,,0.25,Wunderground v.1.15,2013-02-24 03:28:00,
2013-02-23 22:30:00,46.6,45.5,29.89,West,281,0.0,0.0,96,0.00,,,0.25,Wunderground v.1.15,2013-02-24 03:30:00,
2013-02-23 22:31:00,46.6,45.5,29.89,West,281,0.0,0.0,96,0.00,,,0.25,Wunderground v.1.15,2013-02-24 03:31:00,
2013-02-23 22:33:00,46.6,45.5,29.89,West,281,0.0,0.0,96,0.00,,,0.25,Wunderground v.1.15,2013-02-24 03:33:00,
2013-02-23 22:36:00,46.6,45.5,29.89,West,281,0.0,0.0,96,0.00,,,0.25,Wunderground v.1.15,2013-02-24 03:36:00,
2013-02-23 22:38:00,46.7,45.6,29.89,West,281,1.0,1.0,96,0.00,,,0.25,Wunderground v.1.15,2013-02-24 03:38:00,
2013-02-23 22:41:00,46.8,45.7,29.89,West,281,0.0,1.0,96,0.00,,,0.25,Wunderground v.1.15,2013-02-24 03:41:00,
2013-02-23 22:43:00,46.8,45.7,29.89,West,281,0.0,1.0,96,0.00,,,0.25,Wunderground v.1.15,2013-02-24 03:43:00,
2013-02-23 22:46:00,47.0,45.9,29.89,West,281,1.0,2.0,96,0.00,,,0.25,Wunderground v.1.15,2013-02-24 03:46:00,
2013-02-23 22:48:00,47.1,46.0,29.89,West,281,1.0,3.0,96,0.00,,,0.25,Wunderground v.1.15,2013-02-24 03:48:00,
2013-02-23 22:49:00,47.1,46.0,29.89,West,281,1.0,3.0,96,0.00,,,0.25,Wunderground v.1.15,2013-02-24 03:49:00,
2013-02-23 22:51:00,47.0,45.9,29.89,West,281,3.0,3.0,96,0.00,,,0.25,Wunderground v.1.15,2013-02-24 03:51:00,
2013-02-23 22:53:00,46.9,45.8,29.90,West,281,3.0,3.0,96,0.00,,,0.25,Wunderground v.1.15,2013-02-24 03:53:00,
2013-02-23 22:54:00,46.8,45.7,29.90,West,281,2.0,3.0,96,0.00,,,0.25,Wunderground v.1.15,2013-02-24 03:54:00,
2013-02-23 22:56:00,46.5,45.4,29.91,West,281,3.0,3.0,96,0.00,,,0.25,Wunderground v.1.15,2013-02-24 03:56:00,
2013-02-23 22:58:00,46.3,45.2,29.91,West,281,1.0,3.0,96,0.00,,,0.25,Wunderground v.1.15,2013-02-24 03:58:00,
2013-02-23 22:59:00,46.3,45.2,29.91,West,281,2.0,3.0,96,0.00,,,0.25,Wunderground v.1.15,2013-02-24 03:59:00,
2013-02-23 23:00:00,46.3,45.2,29.91,West,281,2.0,3.0,96,0.00,,,0.25,Wunderground v.1.15,2013-02-24 04:00:00,
2013-02-23 23:01:00,46.3,45.2,29.91,West,281,2.0,4.0,96,0.00,,,0.25,Wunderground v.1.15,2013-02-24 04:01:00,
2013-02-23 23:03:00,46.5,45.4,29.91,West,281,2.0,4.0,96,0.00,,,0.25,Wunderground v.1.15,2013-02-24 04:03:00,
2013-02-23 23:05:00,46.5,45.4,29.91,West,281,1.0,4.0,96,0.00,,,0.25,Wunderground v.1.15,2013-02-24 04:05:00,
2013-02-23 23:07:00,46.4,45.3,29.91,West,281,0.0,4.0,96,0.00,,,0.25,Wunderground v.1.15,2013-02-24 04:07:00,
2013-02-23 23:09:00,46.2,45.1,29.91,West,281,0.0,4.0,96,0.00,,,0.25,Wunderground v.1.15,2013-02-24 04:09:00,
2013-02-23 23:10:00,46.1,45.0,29.90,West,281,1.0,1.0,96,0.00,,,0.25,Wunderground v.1.15,2013-02-24 04:10:00,
2013-02-23 23:12:00,45.8,44.4,29.90,West,281,2.0,2.0,95,0.00,,,0.25,Wunderground v.1.15,2013-02-24 04:12:00,
2013-02-23 23:14:00,45.4,44.1,29.90,West,281,3.0,4.0,95,0.00,,,0.25,Wunderground v.1.15,2013-02-24 04:14:00,
2013-02-23 23:15:00,45.1,43.8,29.90,West,281,1.0,4.0,95,0.00,,,0.25,Wunderground v.1.15,2013-02-24 04:15:00,
2013-02-23 23:17:00,44.9,43.6,29.90,West,281,0.0,4.0,95,0.00,,,0.25,Wunderground v.1.15,2013-02-24 04:17:00,
2013-02-23 23:19:00,44.8,43.5,29.90,West,281,1.0,4.0,95,0.00,,,0.25,Wunderground v.1.15,2013-02-24 04:19:00,
2013-02-23 23:20:00,44.8,43.5,29.90,West,281,2.0,2.0,95,0.00,,,0.25,Wunderground v.1.15,2013-02-24 04:20:00,
2013-02-23 23:21:00,44.9,43.8,29.90,West,281,1.0,3.0,96,0.00,,,0.25,Wunderground v.1.15,2013-02-24 04:21:00,
2013-02-23 23:22:00,45.0,43.9,29.90,West,281,1.0,3.0,96,0.00,,,0.25,Wunderground v.1.15,2013-02-24 04:22:00,
2013-02-23 23:24:00,45.0,43.9,29.90,West,281,2.0,3.0,96,0.00,,,0.25,Wunderground v.1.15,2013-02-24 04:24:00,
2013-02-23 23:26:00,45.1,44.0,29.90,West,281,3.0,4.0,96,0.00,,,0.25,Wunderground v.1.15,2013-02-24 04:26:00,
2013-02-23 23:28:00,45.3,44.2,29.90,West,281,0.0,4.0,96,0.00,,,0.25,Wunderground v.1.15,2013-02-24 04:28:00,
2013-02-23 23:29:00,45.3,44.2,29.90,West,281,1.0,4.0,96,0.00,,,0.25,Wunderground v.1.15,2013-02-24 04:29:00,
2013-02-23 23:31:00,45.4,44.3,29.90,West,281,1.0,2.0,96,0.00,,,0.25,Wunderground v.1.15,2013-02-24 04:31:00,
2013-02-23 23:32:00,45.4,44.3,29.90,West,281,1.0,2.0,96,0.00,,,0.25,Wunderground v.1.15,2013-02-24 04:32:00,
2013-02-23 23:33:00,45.4,44.3,29.90,West,281,2.0,2.0,96,0.00,,,0.25,Wunderground v.1.15,2013-02-24 04:33:00,
2013-02-23 23:34:00,45.2,44.1,29.90,West,281,2.0,3.0,96,0.00,,,0.25,Wunderground v.1.15,2013-02-24 04:34:00,
2013-02-23 23:36:00,44.8,43.5,29.90,West,281,0.0,3.0,95,0.00,,,0.25,Wunderground v.1.15,2013-02-24 04:36:00,
2013-02-23 23:37:00,44.7,43.4,29.90,West,281,1.0,3.0,95,0.00,,,0.25,Wunderground v.1.15,2013-02-24 04:37:00,
2013-02-23 23:38:00,44.5,43.2,29.90,West,281,1.0,3.0,95,0.00,,,0.25,Wunderground v.1.15,2013-02-24 04:38:00,
2013-02-23 23:39:00,44.3,43.0,29.89,West,281,0.0,3.0,95,0.00,,,0.25,Wunderground v.1.15,2013-02-24 04:39:00,
2013-02-23 23:42:00,44.2,42.9,29.90,West,281,0.0,1.0,95,0.00,,,0.25,Wunderground v.1.15,2013-02-24 04:42:00,
2013-02-23 23:43:00,44.2,42.9,29.90,West,281,0.0,1.0,95,0.00,,,0.25,Wunderground v.1.15,2013-02-24 04:43:00,
2013-02-23 23:46:00,44.2,43.1,29.90,West,281,1.0,1.0,96,0.00,,,0.25,Wunderground v.1.15,2013-02-24 04:46:00,
2013-02-23 23:47:00,44.2,43.1,29.90,West,281,0.0,1.0,96,0.00,,,0.25,Wunderground v.1.15,2013-02-24 04:47:00,
2013-02-23 23:48:00,44.1,43.0,29.90,West,281,0.0,1.0,96,0.00,,,0.25,Wunderground v.1.15,2013-02-24 04:48:00,
2013-02-23 23:51:00,44.1,43.0,29.90,West,281,0.0,0.0,96,0.00,,,0.25,Wunderground v.1.15,2013-02-24 04:51:00,
2013-02-23 23:52:00,44.0,42.9,29.90,West,281,0.0,0.0,96,0.00,,,0.25,Wunderground v.1.15,2013-02-24 04:52:00,
2013-02-23 23:54:00,44.0,42.9,29.90,West,281,0.0,0.0,96,0.00,,,0.25,Wunderground v.1.15,2013-02-24 04:54:00,
2013-02-23 23:56:00,43.9,42.6,29.90,West,281,0.0,0.0,95,0.00,,,0.25,Wunderground v.1.15,2013-02-24 04:56:00,
2013-02-23 23:57:00,43.8,42.5,29.90,West,281,0.0,0.0,95,0.00,,,0.25,Wunderground v.1.15,2013-02-24 04:57:00,
2013-02-23 23:59:00,43.8,42.5,29.90,West,281,0.0,1.0,95,0.00,,,0.25,Wunderground v.1.15,2013-02-24 04:59:00,